[{"header": {"parameterCategory": 1, "parameterNumber": 2, "dx": 0.06612293990616946, "dy": 0.0552356325346848, "nx": 98, "ny": 59, "la1": 35.046912555036876, "la2": 31.78801023549047, "lo1": -121.43107172385933, "lo2": -114.95102361305473, "refTime": "2026041303"}, "data": [7.15, 7.15, 7.15, 7.6, 7.6, 7.15, 7.15, 7.15, 7.15, 6.71, 6.26, 5.81, 5.81, 5.81, 5.81, 6.26, 6.26, 6.26, 6.71, 6.71, 6.71, 7.15, 7.6, 8.05, 7.6, 7.6, 7.6, 7.15, 7.15, 7.15, 7.15, 7.15, 6.71, 5.81, 4.02, 1.79, 0.45, 0.0, 0.45, 1.34, 2.68, 4.47, 4.92, 4.02, 3.58, 6.26, 8.49, 9.39, 9.83, 10.73, 11.18, 11.18, 11.62, 11.62, 11.62, 11.62, 12.52, 12.96, 13.41, 13.86, 13.86, 13.41, 12.07, 10.73, 9.39, 8.94, 9.39, 10.73, 11.62, 12.07, 12.52, 12.52, 12.96, 12.96, 12.96, 12.07, 10.28, 7.15, 4.02, 2.24, 2.24, 3.13, 3.13, 3.13, 3.58, 4.47, 5.36, 5.81, 5.81, 6.71, 7.15, 7.6, 8.49, 8.94, 8.94, 8.49, 8.49, 8.49, 7.6, 7.6, 7.6, 8.05, 8.05, 7.6, 7.6, 7.6, 7.15, 6.71, 6.26, 6.26, 6.26, 6.26, 6.26, 5.81, 6.26, 6.26, 6.26, 6.26, 5.81, 5.81, 6.71, 7.6, 7.6, 7.6, 6.71, 6.26, 6.26, 6.26, 6.71, 6.71, 6.26, 4.92, 3.13, 1.79, 1.79, 1.79, 2.24, 3.13, 4.92, 5.36, 4.47, 4.92, 6.26, 7.6, 8.94, 9.83, 10.28, 10.73, 10.73, 11.18, 11.18, 11.18, 11.18, 11.62, 12.52, 13.41, 13.86, 13.86, 13.41, 12.52, 11.18, 9.83, 8.94, 9.39, 10.28, 11.62, 12.07, 12.96, 12.96, 12.96, 12.52, 12.52, 12.07, 11.18, 9.39, 7.15, 4.02, 2.24, 2.24, 3.13, 3.13, 3.13, 3.58, 4.47, 5.36, 5.81, 5.81, 6.71, 7.15, 7.6, 8.49, 8.94, 8.94, 8.49, 8.49, 8.49, 7.6, 8.05, 8.05, 8.05, 8.05, 8.05, 7.6, 7.6, 7.6, 7.15, 6.71, 6.26, 6.26, 6.26, 6.26, 6.26, 6.26, 6.26, 6.26, 5.81, 5.81, 4.92, 5.36, 6.26, 7.6, 7.6, 7.15, 5.81, 4.92, 4.47, 4.47, 4.92, 4.92, 4.02, 2.24, 1.34, 2.68, 4.47, 4.92, 5.36, 4.47, 4.02, 4.92, 6.71, 7.6, 8.94, 9.39, 9.83, 10.28, 10.28, 10.28, 10.73, 10.73, 11.18, 11.18, 12.07, 12.96, 13.41, 13.86, 13.41, 12.96, 11.18, 9.83, 9.39, 9.39, 10.28, 11.18, 12.52, 13.41, 13.86, 13.41, 12.96, 12.07, 11.18, 10.28, 9.39, 8.05, 5.81, 2.68, 1.79, 2.24, 3.13, 3.13, 3.13, 4.02, 4.92, 5.81, 6.26, 6.26, 7.6, 8.05, 7.6, 8.05, 8.05, 8.05, 8.49, 8.49, 8.05, 8.05, 8.49, 8.49, 8.49, 8.49, 8.05, 8.05, 8.05, 7.6, 7.15, 6.71, 6.71, 6.26, 6.26, 6.26, 6.26, 6.26, 5.81, 6.26, 5.81, 5.81, 5.36, 4.47, 4.92, 6.26, 7.15, 7.15, 5.81, 4.47, 3.58, 2.24, 1.34, 0.0, 0.0, 0.0, 0.0, 0.0, 2.68, 4.92, 4.47, 4.02, 5.81, 7.15, 8.05, 8.94, 9.39, 9.83, 9.83, 9.39, 9.83, 9.83, 10.28, 10.73, 11.18, 11.62, 12.07, 12.96, 12.96, 12.96, 12.52, 11.62, 10.28, 9.39, 8.94, 9.83, 10.73, 12.07, 12.96, 13.86, 13.86, 13.41, 12.52, 11.62, 9.83, 8.05, 6.71, 6.26, 4.47, 1.79, 1.34, 2.24, 3.13, 3.13, 4.02, 4.47, 5.36, 6.26, 6.71, 7.15, 8.05, 8.05, 7.6, 7.15, 7.15, 7.15, 8.05, 8.05, 7.6, 8.49, 8.94, 8.94, 8.94, 8.49, 8.49, 8.05, 8.05, 7.6, 7.15, 7.15, 7.15, 6.71, 6.26, 6.26, 6.26, 5.81, 5.81, 5.81, 5.81, 5.81, 4.92, 4.47, 4.47, 4.92, 5.36, 5.36, 5.36, 4.47, 3.58, 1.79, 0.0, 0.0, 0.0, 0.0, 0.0, 0.0, 0.0, 3.13, 4.02, 5.36, 7.6, 8.49, 8.49, 8.94, 9.39, 9.39, 8.94, 8.94, 9.39, 9.83, 10.28, 10.73, 11.18, 11.62, 12.07, 12.52, 12.52, 12.07, 11.18, 9.83, 8.94, 8.49, 9.39, 10.28, 11.62, 12.52, 12.52, 12.96, 13.41, 13.41, 12.96, 11.18, 8.49, 5.81, 3.58, 3.13, 3.13, 2.24, 0.89, 1.79, 3.13, 4.02, 4.02, 4.47, 5.81, 5.36, 7.15, 8.49, 8.49, 8.05, 7.15, 6.71, 6.26, 7.15, 8.05, 8.05, 7.6, 8.94, 9.39, 9.39, 8.94, 8.49, 8.49, 8.49, 8.49, 8.05, 7.6, 7.15, 7.15, 6.71, 6.71, 6.26, 6.26, 6.26, 5.81, 5.81, 5.36, 5.36, 4.02, 3.58, 4.02, 4.02, 3.58, 0.0, 0.0, 0.0, 4.02, 3.13, 1.34, 0.0, 0.0, 0.0, 0.0, 0.0, 0.0, 5.36, 5.36, 4.92, 5.81, 7.15, 8.49, 8.94, 8.94, 8.94, 8.49, 8.94, 8.94, 9.83, 10.28, 10.73, 11.18, 11.62, 12.07, 12.07, 11.62, 11.62, 10.28, 8.05, 7.15, 8.05, 9.39, 10.73, 12.07, 12.52, 12.07, 11.18, 11.18, 12.07, 12.52, 11.62, 8.49, 4.47, 1.79, 0.89, 1.34, 1.79, 0.89, 1.79, 3.13, 4.02, 4.92, 5.36, 6.26, 6.26, 8.05, 9.39, 8.49, 8.05, 7.6, 6.71, 6.26, 7.15, 8.49, 8.05, 7.15, 9.39, 9.39, 9.39, 9.39, 8.94, 8.49, 8.49, 8.49, 8.05, 7.6, 7.15, 7.15, 7.15, 6.71, 6.71, 6.26, 6.26, 5.81, 5.81, 5.36, 5.36, 4.47, 3.13, 2.68, 3.58, 3.58, 0.0, 0.0, 4.02, 4.92, 4.02, 1.79, 0.45, 0.0, 0.0, 0.0, 0.0, 0.0, 5.36, 5.81, 4.47, 4.47, 4.92, 6.26, 8.49, 9.83, 9.39, 8.94, 8.94, 9.39, 9.83, 10.73, 10.73, 11.18, 11.18, 11.18, 11.18, 10.28, 9.83, 8.05, 6.26, 6.26, 7.15, 8.94, 10.28, 11.18, 12.07, 11.18, 9.83, 9.83, 11.62, 12.07, 10.73, 10.28, 5.81, 1.79, 0.89, 0.89, 1.79, 2.68, 1.79, 3.13, 4.02, 4.92, 6.26, 7.6, 8.49, 9.39, 8.94, 7.6, 7.15, 6.71, 6.26, 6.26, 7.6, 8.49, 8.05, 7.15, 9.83, 9.83, 9.83, 9.39, 8.94, 8.94, 8.94, 8.49, 8.05, 7.6, 7.6, 7.6, 7.15, 7.15, 6.71, 6.26, 6.26, 6.26, 5.81, 5.81, 5.36, 4.92, 4.02, 2.68, 2.68, 3.58, 3.58, 4.47, 5.36, 4.92, 0.0, 0.0, 0.0, 0.0, 0.0, 0.0, 0.0, 0.0, 0.0, 5.36, 4.92, 4.92, 5.36, 6.71, 7.6, 8.94, 9.83, 10.28, 9.83, 9.83, 9.83, 10.28, 10.73, 10.73, 10.73, 10.28, 9.83, 8.49, 6.71, 5.36, 4.47, 5.81, 7.15, 8.94, 10.28, 11.18, 12.07, 12.07, 11.62, 11.62, 12.52, 12.07, 11.18, 8.49, 4.47, 2.24, 1.34, 1.79, 3.58, 4.02, 2.24, 1.34, 2.68, 4.92, 6.71, 8.49, 8.94, 8.05, 7.15, 6.26, 6.26, 5.81, 5.81, 6.71, 8.05, 8.49, 8.05, 7.15, 9.83, 10.28, 9.83, 9.83, 9.39, 9.39, 9.39, 8.94, 8.05, 7.6, 7.6, 7.15, 7.15, 7.15, 7.15, 6.71, 6.26, 6.26, 6.26, 5.81, 5.81, 4.92, 4.47, 3.58, 3.13, 3.58, 3.58, 4.02, 4.92, 3.58, 0.0, 0.0, 0.0, 0.0, 2.68, 3.58, 4.02, 3.58, 4.02, 4.92, 5.36, 5.81, 5.81, 6.26, 7.15, 7.6, 8.49, 8.94, 9.39, 9.83, 9.83, 9.83, 9.83, 9.83, 9.83, 9.39, 8.05, 6.26, 4.02, 3.58, 4.47, 6.26, 7.6, 8.94, 9.83, 11.18, 12.52, 12.96, 12.07, 11.62, 11.18, 9.83, 7.15, 3.58, 1.79, 1.79, 2.68, 4.02, 5.81, 6.26, 6.26, 1.79, 3.13, 5.36, 7.6, 8.49, 8.05, 6.71, 5.81, 5.36, 5.81, 5.36, 5.36, 6.71, 8.94, 8.94, 8.05, 7.15, 10.28, 10.28, 10.28, 9.83, 9.83, 9.83, 9.39, 8.94, 8.49, 7.6, 7.6, 7.15, 7.15, 7.15, 7.15, 6.71, 6.71, 6.26, 6.26, 5.81, 5.81, 5.36, 4.92, 4.47, 4.02, 3.58, 3.58, 3.58, 4.02, 4.02, 4.47, 4.47, 3.58, 3.58, 3.58, 3.13, 3.13, 3.58, 4.02, 5.36, 6.26, 5.81, 5.81, 5.81, 5.81, 6.26, 7.15, 7.6, 8.05, 8.94, 9.39, 9.83, 9.39, 8.94, 8.94, 8.05, 6.71, 4.02, 2.24, 3.13, 5.81, 7.6, 8.05, 8.49, 9.39, 11.62, 12.96, 12.96, 10.73, 8.49, 6.26, 4.92, 2.68, 0.89, 0.89, 0.89, 2.24, 4.47, 7.15, 8.94, 10.28, 12.07, 7.6, 8.49, 8.05, 7.6, 6.26, 5.36, 4.92, 5.36, 5.36, 5.36, 4.92, 6.26, 8.49, 9.39, 8.49, 7.15, 10.28, 10.73, 10.73, 10.28, 9.83, 9.83, 9.39, 8.94, 8.49, 8.05, 7.6, 7.15, 7.15, 7.15, 7.15, 7.15, 6.71, 6.26, 6.26, 5.81, 5.81, 5.81, 5.36, 5.36, 4.92, 4.02, 3.58, 3.58, 4.47, 5.36, 5.36, 4.47, 3.58, 3.13, 2.68, 3.13, 3.58, 4.47, 5.36, 6.26, 6.26, 5.81, 5.81, 5.36, 4.92, 5.36, 5.81, 6.71, 7.15, 7.6, 7.6, 8.05, 8.05, 7.6, 7.15, 7.15, 7.15, 4.47, 1.34, 2.68, 5.81, 8.05, 8.49, 8.05, 8.94, 10.73, 12.52, 12.07, 8.94, 4.47, 1.34, 0.45, 0.0, 0.0, 0.0, 1.34, 2.68, 4.92, 8.05, 10.73, 12.96, 14.75, 13.41, 10.28, 7.6, 6.26, 5.36, 4.92, 4.92, 5.36, 5.36, 5.36, 5.36, 6.26, 8.05, 8.94, 8.49, 7.15, 10.73, 11.18, 10.73, 10.73, 10.28, 9.83, 9.39, 8.94, 8.49, 8.05, 7.6, 7.15, 7.15, 7.15, 7.15, 7.15, 6.71, 6.71, 6.26, 5.81, 5.81, 6.26, 6.26, 5.81, 5.36, 4.92, 3.58, 3.58, 4.02, 4.92, 4.92, 4.47, 4.02, 3.58, 3.58, 4.02, 4.92, 6.26, 6.26, 6.26, 6.26, 6.26, 5.81, 5.36, 4.47, 4.47, 5.36, 5.81, 5.81, 5.36, 4.47, 0.0, 0.0, 0.0, 0.0, 0.0, 0.0, 0.0, 1.79, 1.34, 3.58, 6.71, 8.05, 7.6, 7.6, 8.94, 10.73, 10.73, 8.49, 3.58, 0.0, -0.89, -0.45, -0.45, 0.45, 2.24, 4.47, 7.6, 10.73, 12.52, 13.86, 14.75, 13.41, 10.28, 7.6, 6.26, 5.36, 4.92, 5.36, 5.36, 5.36, 5.36, 5.81, 6.71, 8.05, 8.49, 8.05, 7.15, 11.18, 11.18, 10.73, 10.73, 10.28, 9.83, 9.39, 8.94, 8.49, 8.05, 7.6, 7.6, 7.15, 7.15, 7.15, 7.15, 6.71, 6.71, 6.26, 6.26, 6.26, 6.26, 6.71, 6.71, 6.26, 5.36, 4.02, 3.58, 4.02, 4.47, 4.92, 4.92, 4.92, 4.92, 4.92, 5.36, 5.81, 5.81, 5.81, 6.26, 6.26, 6.26, 6.26, 5.36, 4.47, 4.02, 4.02, 4.47, 4.47, 3.13, 0.0, 0.0, 0.0, 0.0, 0.0, 0.0, 0.0, 0.0, 0.0, 3.13, 2.68, 5.36, 7.15, 6.26, 5.81, 0.0, 0.0, 0.0, 0.0, 0.0, 0.0, 0.0, -0.89, 0.0, 2.24, 5.81, 8.49, 11.62, 13.41, 13.86, 12.96, 13.41, 12.96, 11.18, 8.94, 8.05, 6.26, 5.81, 5.81, 5.81, 5.81, 5.81, 6.26, 6.71, 7.6, 7.6, 7.15, 7.15, 11.62, 11.18, 10.73, 10.73, 10.28, 9.83, 9.39, 8.94, 8.49, 8.05, 7.6, 7.6, 7.15, 7.15, 7.15, 6.71, 6.71, 6.71, 6.71, 6.71, 6.71, 6.71, 7.15, 7.15, 6.71, 5.81, 4.92, 4.47, 4.47, 4.47, 5.36, 5.81, 5.81, 6.26, 6.26, 6.26, 6.26, 6.26, 6.26, 6.71, 6.71, 6.71, 5.81, 5.36, 4.47, 4.02, 3.58, 3.58, 4.02, 4.02, 3.58, 0.0, 0.0, 0.0, 0.0, 0.0, 0.0, 0.0, 0.0, 5.36, 4.02, 4.02, 4.47, 4.02, 0.0, 0.0, 0.0, 0.0, 0.0, 0.0, 0.0, 0.0, 0.0, 0.0, 4.02, 9.39, 12.52, 14.3, 14.75, 13.86, 12.07, 11.62, 10.73, 9.39, 10.73, 10.28, 8.49, 7.15, 6.71, 6.71, 6.26, 5.81, 6.26, 6.71, 7.15, 6.71, 6.71, 6.71, 11.62, 11.18, 10.73, 10.28, 10.28, 9.83, 9.39, 8.94, 8.49, 8.05, 7.6, 7.6, 7.15, 7.15, 7.15, 7.15, 6.71, 6.71, 7.15, 7.15, 7.15, 7.6, 7.6, 7.15, 6.71, 6.26, 5.81, 5.36, 5.36, 5.36, 5.81, 6.26, 6.26, 6.71, 6.71, 7.15, 7.15, 7.15, 7.15, 7.15, 7.15, 6.71, 6.26, 5.81, 4.92, 4.47, 4.02, 3.58, 3.58, 4.02, 4.02, 4.02, 4.47, 4.47, 4.92, 6.26, 0.0, 0.0, 0.0, 4.92, 5.81, 3.58, 2.68, 2.68, 0.0, 0.0, 0.0, 0.0, 0.0, 0.0, 0.0, 0.0, 0.0, 0.0, 3.13, 10.73, 14.3, 15.65, 15.2, 14.3, 12.07, 10.28, 9.39, 8.94, 8.94, 9.83, 9.39, 8.49, 8.05, 7.6, 7.15, 6.26, 5.81, 6.71, 6.71, 6.26, 6.26, 6.26, 11.18, 10.73, 10.73, 10.28, 10.28, 9.83, 9.39, 8.94, 8.49, 8.05, 7.6, 7.6, 7.6, 7.15, 7.15, 7.15, 7.15, 7.15, 7.6, 8.05, 8.05, 8.05, 7.6, 7.6, 7.15, 6.71, 6.26, 5.81, 5.81, 6.26, 6.26, 6.26, 6.71, 6.71, 7.15, 7.15, 7.15, 7.15, 7.15, 7.15, 7.15, 7.15, 6.26, 5.81, 5.36, 4.92, 4.92, 4.02, 4.02, 4.02, 4.47, 4.92, 5.36, 5.36, 4.92, 5.81, 6.71, 4.47, 0.0, 7.15, 6.71, 5.36, 3.58, 3.58, 4.02, 0.0, 0.0, 0.0, 0.0, 0.0, 0.0, 0.0, 0.0, 0.0, 5.36, 11.62, 15.65, 16.54, 15.65, 14.3, 12.07, 10.73, 9.83, 9.39, 8.94, 8.94, 8.94, 9.39, 9.39, 8.94, 8.49, 5.81, 6.71, 6.71, 6.26, 6.26, 6.71, 6.71, 10.73, 10.28, 10.28, 9.83, 9.83, 9.39, 8.94, 8.49, 8.05, 8.05, 7.6, 7.6, 7.6, 7.6, 7.6, 7.6, 7.6, 8.05, 8.49, 8.49, 8.49, 8.49, 8.05, 8.05, 7.6, 7.15, 6.71, 6.26, 6.26, 6.71, 6.71, 6.71, 6.71, 6.71, 7.15, 7.15, 7.15, 7.15, 7.6, 7.15, 7.15, 6.71, 6.71, 6.26, 5.81, 5.81, 5.36, 5.36, 4.92, 4.92, 5.36, 5.36, 5.36, 4.92, 4.47, 4.92, 5.81, 6.71, 7.6, 7.6, 7.15, 6.26, 5.36, 4.02, 3.58, 3.13, 2.24, 0.0, 0.0, 0.0, 0.0, 0.0, 0.0, 0.0, 10.28, 13.86, 16.54, 17.43, 15.65, 13.41, 12.07, 11.18, 10.73, 10.28, 9.39, 9.39, 8.94, 8.94, 8.94, 8.94, 8.05, 6.26, 6.26, 6.71, 6.71, 6.71, 7.15, 7.15, 10.28, 10.28, 10.28, 9.83, 9.39, 9.39, 8.94, 8.49, 8.05, 8.05, 8.05, 8.05, 8.05, 8.05, 8.05, 8.05, 8.49, 8.49, 8.94, 9.39, 8.94, 8.49, 8.49, 8.05, 8.05, 7.6, 7.15, 6.71, 6.71, 6.71, 7.15, 7.15, 7.15, 6.71, 6.71, 6.26, 6.71, 7.15, 7.15, 7.15, 7.15, 6.71, 6.71, 6.26, 6.26, 5.81, 5.81, 5.36, 5.36, 5.36, 5.81, 5.81, 5.36, 4.92, 4.92, 5.36, 5.81, 6.26, 6.71, 7.15, 7.15, 6.71, 5.81, 4.92, 4.02, 4.02, 3.13, 1.79, 0.0, 0.0, 0.0, 0.0, 0.0, 15.2, 14.75, 14.75, 14.75, 15.65, 15.65, 13.86, 12.07, 11.62, 11.62, 11.18, 10.28, 9.83, 8.94, 8.49, 8.49, 8.94, 8.94, 7.6, 6.26, 6.26, 6.71, 7.15, 7.6, 7.6, 10.28, 10.28, 9.83, 9.83, 9.39, 8.94, 8.94, 8.49, 8.49, 8.05, 8.05, 8.05, 8.49, 8.49, 8.49, 8.49, 8.94, 8.94, 9.39, 9.39, 8.94, 8.49, 8.05, 8.05, 8.05, 8.05, 7.6, 7.15, 7.15, 7.15, 7.15, 7.6, 7.15, 6.71, 6.26, 5.81, 6.26, 6.71, 6.71, 7.15, 7.15, 6.71, 6.71, 6.71, 6.26, 6.26, 5.81, 5.36, 5.36, 5.36, 5.81, 5.81, 5.36, 5.36, 5.36, 5.81, 6.26, 6.71, 6.71, 6.71, 6.71, 6.71, 5.81, 4.92, 4.92, 4.92, 4.47, 4.47, 0.0, 0.0, 0.0, 0.0, 18.78, 16.99, 15.65, 14.75, 14.75, 12.96, 0.0, 11.18, 10.73, 12.07, 12.96, 12.96, 12.07, 10.28, 8.94, 8.49, 8.05, 8.05, 8.94, 8.49, 7.15, 6.71, 7.15, 8.05, 8.49, 8.49, 10.28, 10.28, 9.83, 9.83, 9.39, 8.94, 8.94, 8.49, 8.49, 8.49, 8.49, 8.49, 8.49, 8.49, 8.94, 8.94, 8.94, 8.94, 9.39, 9.39, 8.94, 8.49, 8.05, 8.05, 8.49, 8.05, 8.05, 7.6, 7.15, 7.6, 8.05, 8.05, 8.05, 7.15, 6.26, 5.81, 5.81, 6.26, 6.26, 6.71, 6.71, 6.71, 6.71, 6.71, 6.71, 6.26, 5.81, 5.81, 5.81, 5.81, 5.81, 5.81, 5.81, 5.81, 6.26, 6.26, 6.71, 6.71, 6.26, 6.26, 6.26, 6.26, 5.81, 5.36, 5.36, 5.81, 6.26, 6.71, 8.49, 11.18, 14.75, 17.43, 17.88, 16.99, 13.86, 10.73, 8.49, 8.49, 10.73, 10.73, 11.62, 13.41, 14.75, 13.41, 12.52, 11.18, 9.39, 8.94, 8.05, 7.6, 8.05, 8.94, 8.05, 7.6, 8.05, 8.94, 8.94, 8.94, 10.28, 10.28, 9.83, 9.83, 9.39, 9.39, 8.94, 8.94, 8.49, 8.49, 8.49, 8.94, 8.94, 8.94, 8.94, 8.94, 8.94, 8.94, 8.94, 8.94, 8.94, 8.49, 8.05, 8.05, 8.49, 8.49, 8.05, 8.05, 7.6, 8.05, 8.49, 8.49, 8.49, 8.05, 7.15, 6.26, 5.81, 5.81, 6.26, 6.71, 6.71, 6.71, 6.71, 6.71, 6.71, 6.26, 6.26, 5.81, 5.81, 5.81, 5.81, 5.81, 5.81, 6.26, 6.71, 6.71, 6.71, 6.71, 6.26, 5.81, 5.81, 5.81, 5.81, 5.81, 6.26, 6.71, 6.71, 7.15, 8.94, 10.73, 13.86, 17.43, 18.33, 13.86, 8.49, 4.92, 2.68, 4.47, 5.81, 8.49, 11.62, 14.75, 15.65, 14.3, 12.52, 11.18, 9.83, 9.83, 8.94, 7.6, 7.15, 8.05, 8.94, 8.94, 9.39, 9.83, 9.83, 9.83, 10.28, 10.28, 9.83, 9.83, 9.83, 9.39, 9.39, 8.94, 8.94, 8.94, 8.94, 8.94, 8.94, 8.94, 8.94, 8.49, 8.49, 8.49, 8.49, 8.49, 8.49, 8.49, 8.05, 8.05, 8.49, 8.49, 8.05, 8.05, 8.05, 8.05, 8.49, 8.94, 8.94, 8.49, 7.6, 6.71, 6.26, 5.81, 6.26, 6.26, 6.71, 6.71, 6.71, 6.71, 6.71, 6.71, 6.26, 5.81, 5.81, 5.81, 5.81, 5.81, 5.81, 6.26, 6.71, 6.71, 6.26, 6.26, 6.26, 5.81, 5.81, 5.81, 6.26, 6.26, 6.71, 6.71, 6.71, 7.15, 7.6, 8.94, 10.73, 0.0, 12.96, 10.28, 2.68, 4.47, 6.26, 8.05, 8.94, 9.39, 11.18, 14.75, 16.54, 16.09, 13.41, 11.18, 9.83, 9.39, 8.94, 7.6, 7.15, 8.05, 9.83, 10.28, 10.28, 10.28, 10.28, 10.28, 10.28, 10.28, 10.28, 10.28, 9.83, 9.83, 9.39, 9.39, 9.39, 9.39, 9.39, 9.39, 9.39, 9.39, 8.94, 8.49, 8.49, 8.49, 8.49, 8.49, 8.49, 8.49, 8.49, 8.49, 8.49, 8.49, 8.49, 8.05, 8.05, 8.05, 8.49, 8.94, 8.94, 8.49, 7.6, 6.71, 6.26, 6.26, 6.26, 6.26, 6.71, 6.71, 6.71, 6.71, 6.71, 6.71, 6.26, 5.81, 5.81, 5.81, 5.81, 5.81, 5.81, 6.26, 6.26, 5.81, 5.81, 6.26, 6.71, 6.26, 5.81, 5.81, 6.26, 7.15, 6.71, 6.71, 6.71, 7.15, 7.15, 6.71, 5.36, 0.0, 8.94, 8.94, 7.6, 9.39, 11.18, 12.52, 13.41, 13.41, 12.96, 14.3, 15.65, 15.65, 14.3, 11.62, 9.83, 9.39, 9.39, 9.39, 8.05, 8.94, 10.28, 10.73, 10.73, 10.73, 10.28, 10.28, 10.28, 10.28, 10.28, 10.28, 10.28, 10.28, 9.83, 9.83, 9.83, 9.39, 9.83, 9.83, 9.83, 9.39, 9.39, 8.94, 8.49, 8.49, 8.49, 8.49, 8.49, 8.49, 8.49, 8.94, 8.94, 8.94, 8.49, 8.05, 8.05, 8.05, 8.49, 8.94, 8.94, 8.49, 7.6, 6.71, 6.26, 6.26, 6.26, 6.26, 6.71, 6.71, 7.15, 7.15, 6.71, 6.71, 6.26, 5.81, 5.81, 5.81, 5.81, 5.81, 6.26, 6.26, 5.81, 5.36, 5.36, 5.81, 6.71, 7.15, 6.26, 6.26, 6.71, 7.15, 6.71, 6.71, 7.15, 7.6, 7.15, 6.71, 6.71, 0.0, 0.0, 17.88, 14.75, 14.3, 13.86, 13.86, 13.41, 12.96, 12.96, 12.96, 13.41, 13.41, 12.07, 11.18, 10.28, 9.83, 9.83, 10.73, 9.83, 10.73, 10.73, 10.28, 10.28, 10.73, 10.28, 10.28, 10.28, 10.28, 10.28, 10.73, 10.73, 10.28, 10.28, 10.28, 9.83, 9.83, 9.83, 9.83, 9.83, 9.83, 9.39, 8.94, 8.49, 8.49, 8.49, 8.49, 8.49, 8.49, 8.94, 8.94, 8.94, 8.94, 8.49, 8.05, 8.05, 8.05, 8.49, 8.49, 8.49, 8.05, 7.15, 6.71, 6.26, 6.26, 6.26, 6.71, 6.71, 6.71, 7.15, 7.15, 6.71, 6.71, 6.26, 6.26, 5.81, 5.81, 5.81, 6.26, 6.26, 6.26, 5.81, 5.36, 5.36, 5.36, 6.26, 7.6, 7.6, 7.15, 6.71, 6.71, 6.71, 7.15, 7.6, 7.6, 7.6, 8.05, 8.49, 0.0, 0.0, 20.12, 18.78, 16.99, 14.3, 11.62, 10.28, 10.28, 10.28, 10.28, 10.28, 10.73, 10.73, 10.73, 10.73, 10.28, 10.73, 11.62, 12.96, 11.62, 11.18, 9.83, 9.39, 9.39, 9.39, 9.39, 10.73, 10.73, 10.73, 10.73, 10.73, 10.73, 10.73, 10.28, 10.28, 10.28, 10.28, 10.28, 10.28, 9.83, 9.39, 8.94, 8.49, 8.49, 8.49, 8.49, 8.49, 8.94, 8.94, 8.94, 9.39, 9.39, 8.94, 8.49, 8.05, 8.05, 8.05, 8.49, 8.05, 7.6, 7.15, 6.71, 6.26, 6.26, 6.26, 6.71, 6.71, 7.15, 7.15, 7.15, 6.71, 6.71, 6.26, 6.26, 6.26, 6.26, 6.26, 6.26, 6.26, 5.81, 5.81, 5.81, 5.81, 5.36, 5.36, 6.71, 8.05, 8.05, 6.71, 6.26, 6.71, 7.6, 7.6, 7.6, 8.05, 8.94, 9.39, 0.0, 0.0, 0.0, 18.78, 17.88, 14.75, 9.39, 7.6, 8.05, 8.94, 9.39, 9.39, 9.83, 10.28, 10.73, 11.62, 11.62, 12.07, 12.52, 13.41, 13.86, 12.52, 9.83, 8.49, 8.05, 8.05, 8.05, 10.73, 10.73, 10.73, 10.73, 11.18, 11.18, 10.73, 10.73, 10.28, 10.28, 10.28, 10.28, 10.28, 10.28, 9.83, 8.94, 8.94, 8.49, 8.49, 8.49, 8.94, 8.94, 8.94, 9.39, 9.39, 9.39, 8.94, 8.49, 8.05, 8.05, 8.05, 8.05, 8.05, 8.05, 7.6, 7.15, 6.71, 6.71, 6.71, 6.71, 7.15, 7.15, 7.15, 7.15, 6.71, 6.71, 6.26, 6.26, 6.26, 6.26, 6.26, 6.26, 6.26, 5.81, 5.81, 5.81, 5.81, 5.81, 5.36, 5.81, 7.15, 7.6, 7.15, 6.71, 7.15, 7.15, 7.15, 7.15, 8.05, 9.83, 10.73, 10.28, 0.0, 0.0, 0.0, 13.41, 17.88, 10.28, 6.26, 7.6, 8.94, 9.83, 9.83, 9.83, 9.83, 11.18, 12.52, 13.41, 13.41, 13.41, 13.86, 14.75, 14.3, 10.28, 8.49, 7.15, 6.71, 6.71, 11.18, 11.18, 11.18, 11.18, 11.18, 11.18, 11.18, 10.73, 10.73, 10.73, 10.73, 10.73, 10.73, 10.28, 9.83, 9.39, 8.94, 8.49, 8.49, 8.49, 8.94, 8.94, 8.94, 9.39, 9.39, 9.39, 8.94, 8.49, 8.05, 8.05, 8.05, 8.05, 8.05, 8.05, 7.6, 7.15, 6.71, 6.71, 6.71, 7.15, 7.15, 7.15, 7.6, 7.15, 7.15, 6.71, 6.71, 6.26, 6.26, 6.26, 6.26, 6.26, 6.26, 6.26, 5.81, 5.81, 5.81, 5.81, 5.81, 5.81, 6.26, 6.71, 6.71, 7.15, 7.15, 7.15, 7.15, 7.6, 8.05, 9.83, 11.62, 12.52, 11.18, 6.71, 0.0, 0.0, 0.0, 16.54, 9.39, 7.6, 8.49, 9.39, 10.28, 10.73, 11.62, 12.52, 13.41, 14.3, 14.75, 14.75, 14.3, 14.75, 15.2, 12.52, 9.83, 8.05, 7.15, 7.15, 11.18, 11.18, 11.18, 11.18, 11.18, 11.18, 10.73, 10.73, 10.73, 10.73, 10.73, 10.73, 10.73, 10.28, 9.83, 9.39, 8.94, 8.49, 8.49, 8.49, 8.94, 8.94, 8.94, 9.39, 9.39, 8.94, 8.49, 8.49, 8.49, 8.05, 8.05, 8.05, 8.05, 8.05, 7.6, 7.15, 6.71, 6.71, 6.71, 7.15, 7.15, 7.6, 7.6, 7.6, 7.6, 7.15, 6.71, 6.71, 6.71, 6.71, 6.71, 6.26, 6.26, 6.26, 6.26, 5.81, 5.81, 5.81, 5.81, 5.81, 5.36, 6.26, 6.71, 7.15, 7.15, 7.15, 7.6, 8.49, 8.49, 8.94, 9.83, 11.18, 11.62, 10.28, 7.15, 8.94, 15.2, 18.33, 16.09, 8.94, 7.15, 8.49, 9.83, 11.18, 12.07, 12.96, 13.41, 14.3, 14.75, 15.2, 14.75, 14.75, 14.75, 14.3, 12.07, 10.28, 8.49, 8.49, 11.18, 11.18, 11.18, 10.73, 10.73, 10.73, 10.73, 10.73, 10.73, 10.73, 10.73, 10.73, 10.28, 10.28, 9.83, 9.39, 8.94, 8.94, 8.49, 8.49, 8.94, 8.94, 8.94, 8.94, 8.94, 8.94, 8.49, 8.49, 8.49, 8.49, 8.49, 8.49, 8.05, 7.6, 7.15, 7.15, 6.71, 6.71, 6.71, 7.15, 7.6, 7.6, 7.6, 7.6, 7.6, 7.6, 7.15, 6.71, 6.71, 6.71, 6.71, 6.71, 6.71, 6.26, 6.26, 6.26, 6.26, 5.81, 5.81, 5.81, 5.81, 6.26, 7.15, 6.71, 6.71, 6.71, 7.6, 8.94, 9.39, 8.49, 7.6, 8.05, 12.52, 13.86, 14.3, 13.86, 14.3, 15.2, 16.99, 14.75, 8.05, 6.71, 8.94, 10.73, 11.62, 12.52, 12.96, 13.86, 14.75, 14.3, 13.86, 13.86, 14.3, 14.75, 13.86, 12.52, 10.73, 10.73, 11.18, 11.18, 11.18, 10.73, 10.73, 10.73, 10.73, 10.73, 10.73, 10.73, 10.73, 10.73, 10.28, 9.83, 9.39, 9.39, 8.94, 8.94, 8.94, 8.94, 8.94, 8.94, 8.94, 8.94, 8.94, 8.94, 8.94, 8.94, 8.94, 8.94, 8.94, 8.49, 8.49, 8.05, 7.6, 7.15, 6.71, 6.71, 7.15, 7.15, 7.6, 7.6, 7.6, 7.6, 7.6, 7.6, 7.6, 7.15, 7.15, 7.15, 7.15, 7.15, 6.71, 6.71, 6.26, 6.26, 6.26, 6.26, 5.81, 5.81, 5.81, 6.26, 6.71, 6.71, 6.71, 6.26, 6.26, 8.05, 8.94, 8.94, 8.94, 9.39, 0.0, 14.3, 16.54, 14.75, 13.41, 13.41, 15.2, 16.99, 12.52, 8.49, 8.49, 9.39, 10.28, 10.28, 11.18, 12.52, 12.96, 13.41, 13.41, 12.96, 12.96, 13.41, 13.86, 13.41, 12.52, 12.52, 11.62, 11.62, 11.18, 10.73, 10.73, 10.73, 10.73, 10.73, 10.73, 10.73, 10.73, 10.73, 10.28, 9.83, 9.39, 9.39, 8.94, 8.94, 8.94, 8.94, 8.94, 8.94, 8.94, 8.94, 8.94, 8.94, 9.39, 9.39, 8.94, 8.94, 8.94, 8.94, 8.49, 8.05, 7.6, 7.15, 7.15, 6.71, 7.15, 7.15, 7.6, 7.6, 7.6, 7.6, 7.6, 7.6, 7.6, 7.6, 7.15, 7.15, 7.15, 7.15, 7.15, 6.71, 6.71, 6.71, 6.26, 6.26, 6.26, 6.26, 6.26, 6.71, 6.71, 7.15, 6.71, 6.26, 6.26, 6.71, 8.49, 10.28, 11.62, 11.62, 11.18, 0.0, 15.2, 14.75, 13.41, 13.41, 14.75, 16.54, 15.2, 11.62, 9.83, 9.83, 9.39, 8.94, 9.39, 10.73, 12.07, 12.96, 12.96, 12.96, 12.52, 12.96, 13.86, 13.86, 13.41, 13.41, 11.62, 11.62, 11.18, 11.18, 10.73, 11.18, 10.73, 10.73, 10.73, 10.73, 10.73, 10.73, 10.28, 9.83, 9.39, 9.39, 8.94, 8.94, 8.94, 8.94, 8.94, 8.94, 8.94, 8.94, 9.39, 9.39, 9.83, 9.83, 9.39, 8.94, 8.94, 8.94, 8.49, 8.05, 8.05, 7.6, 7.15, 7.15, 7.15, 7.15, 7.6, 7.6, 7.6, 7.6, 7.6, 7.6, 7.6, 7.6, 7.6, 7.6, 7.15, 7.15, 7.15, 7.15, 7.15, 6.71, 6.71, 6.26, 6.26, 6.26, 6.26, 6.71, 7.15, 7.15, 7.15, 6.71, 7.15, 7.6, 8.94, 11.18, 12.52, 12.52, 12.96, 0.0, 14.75, 15.65, 14.75, 14.3, 15.2, 15.65, 14.75, 12.96, 12.07, 11.18, 10.28, 9.39, 8.94, 10.28, 11.62, 12.96, 13.41, 13.86, 14.3, 14.3, 14.75, 13.86, 13.86, 13.86, 11.62, 11.62, 11.18, 11.18, 11.18, 11.18, 11.18, 11.18, 10.73, 10.73, 10.73, 10.28, 10.28, 9.83, 9.39, 9.39, 8.94, 8.94, 8.49, 8.94, 8.94, 8.94, 8.94, 8.94, 9.39, 9.83, 9.83, 10.28, 9.83, 9.83, 9.39, 8.94, 8.94, 8.49, 8.05, 7.6, 7.6, 7.15, 7.15, 7.6, 7.6, 7.6, 7.6, 7.6, 7.6, 7.6, 7.6, 7.6, 7.6, 7.6, 7.6, 7.15, 7.15, 7.15, 7.15, 7.15, 6.71, 6.71, 6.26, 6.26, 6.71, 7.15, 7.15, 7.6, 7.15, 7.15, 7.6, 8.05, 8.94, 10.73, 12.07, 12.96, 13.86, 14.3, 15.65, 16.54, 16.09, 15.65, 15.65, 14.75, 13.86, 12.96, 12.52, 12.52, 11.62, 10.28, 9.83, 10.73, 11.62, 12.96, 13.86, 14.3, 14.75, 15.65, 15.2, 14.75, 14.3, 14.3, 11.62, 11.62, 11.62, 11.62, 11.62, 11.18, 11.18, 11.18, 10.73, 10.73, 10.73, 10.28, 10.28, 9.83, 9.83, 9.39, 8.94, 8.94, 8.49, 8.49, 8.49, 8.49, 8.94, 8.94, 9.39, 10.28, 10.28, 10.73, 10.28, 10.28, 9.83, 9.39, 8.94, 8.49, 8.05, 7.6, 7.6, 7.15, 7.6, 7.6, 7.6, 7.6, 7.6, 7.6, 7.6, 7.6, 7.6, 7.6, 7.6, 7.6, 7.6, 7.6, 7.6, 7.15, 7.15, 7.15, 7.15, 6.71, 7.15, 7.15, 7.15, 7.15, 7.6, 7.6, 8.05, 8.05, 8.05, 8.05, 8.49, 9.39, 11.18, 12.96, 14.3, 15.65, 16.09, 16.54, 16.99, 16.54, 15.65, 14.3, 12.52, 12.07, 12.52, 12.52, 12.07, 11.62, 11.18, 11.18, 12.07, 12.52, 13.41, 13.86, 13.86, 13.86, 13.86, 13.41, 13.86, 13.86, 11.62, 11.62, 11.62, 11.62, 11.62, 11.18, 11.18, 11.18, 10.73, 10.73, 10.73, 10.28, 9.83, 9.39, 9.39, 9.39, 8.94, 8.49, 8.49, 8.49, 8.49, 8.49, 8.94, 9.39, 9.83, 10.28, 10.73, 10.73, 10.73, 10.28, 10.28, 9.83, 9.39, 8.94, 8.49, 7.6, 7.6, 7.6, 7.6, 7.6, 7.6, 7.6, 7.6, 7.6, 7.6, 7.6, 7.6, 7.6, 7.6, 7.6, 7.6, 7.6, 7.6, 7.6, 7.15, 7.15, 7.15, 7.15, 7.15, 7.6, 7.6, 7.6, 8.05, 8.05, 8.05, 8.49, 8.49, 8.05, 8.05, 8.49, 9.83, 12.07, 14.75, 16.54, 16.54, 15.65, 16.09, 16.99, 16.54, 13.86, 11.62, 11.62, 12.07, 12.07, 12.07, 12.07, 11.18, 11.18, 11.18, 11.62, 11.18, 11.18, 11.18, 10.73, 10.73, 10.73, 12.52, 12.52, 11.62, 11.62, 11.62, 11.62, 11.62, 11.62, 11.18, 11.18, 10.73, 10.73, 10.73, 10.28, 9.83, 9.83, 9.39, 9.39, 8.94, 8.49, 8.49, 8.49, 8.94, 8.94, 9.39, 9.83, 9.83, 10.28, 10.73, 10.73, 10.73, 10.28, 10.28, 9.83, 9.39, 8.94, 8.49, 8.05, 7.6, 7.6, 7.6, 7.6, 7.6, 7.6, 7.6, 7.6, 7.6, 7.6, 7.6, 7.6, 7.6, 8.05, 8.05, 8.05, 7.6, 7.6, 7.15, 7.15, 7.15, 7.15, 7.6, 8.05, 8.05, 8.49, 8.49, 8.49, 8.49, 8.49, 8.05, 7.6, 7.6, 8.49, 9.39, 11.18, 13.86, 16.54, 16.99, 15.2, 14.3, 15.65, 16.09, 13.86, 12.07, 12.07, 11.62, 11.18, 11.18, 11.18, 10.28, 8.94, 8.49, 8.05, 8.05, 7.6, 7.6, 7.6, 8.05, 8.05, 8.49, 10.73, 12.07, 12.07, 12.07, 12.07, 11.62, 11.62, 11.18, 11.18, 11.18, 10.73, 10.73, 10.28, 9.83, 9.83, 9.83, 9.39, 8.94, 8.49, 8.49, 8.94, 8.94, 9.39, 9.83, 9.83, 10.28, 10.28, 10.73, 10.73, 10.73, 10.28, 10.28, 9.83, 9.39, 8.94, 8.49, 8.05, 7.6, 7.6, 7.6, 7.6, 7.6, 7.6, 7.6, 7.6, 7.6, 7.6, 7.6, 7.6, 8.05, 8.05, 8.05, 8.05, 7.6, 7.6, 7.6, 7.6, 7.6, 7.6, 8.05, 8.05, 8.49, 8.49, 8.49, 8.49, 8.49, 8.49, 8.05, 7.6, 8.05, 8.49, 8.94, 9.83, 12.07, 0.0, 16.99, 16.54, 14.75, 14.3, 14.75, 13.86, 13.41, 13.41, 12.52, 10.28, 9.83, 9.83, 8.05, 5.36, 4.02, 3.13, 3.58, 4.47, 4.47, 4.92, 5.36, 5.81, 6.26, 8.49, 12.52, 12.52, 12.07, 12.07, 12.07, 11.62, 11.18, 11.18, 11.18, 10.73, 10.28, 10.28, 9.83, 9.83, 9.39, 8.94, 8.49, 8.49, 8.49, 8.94, 9.39, 9.83, 9.83, 10.28, 10.28, 10.28, 10.28, 10.28, 10.28, 10.28, 9.83, 9.39, 9.39, 8.94, 8.49, 8.05, 7.6, 7.6, 7.6, 7.6, 7.6, 7.6, 7.6, 7.6, 8.05, 8.05, 7.6, 7.6, 8.05, 8.05, 8.05, 8.05, 7.6, 7.6, 7.6, 7.6, 7.6, 8.49, 8.49, 8.49, 8.49, 8.49, 8.49, 8.49, 8.49, 8.49, 8.05, 8.05, 8.05, 8.49, 8.49, 8.94, 10.73, 0.0, 12.07, 16.99, 15.2, 13.86, 13.86, 13.86, 13.86, 13.86, 12.96, 10.73, 9.39, 8.05, 5.36, 2.24, 0.0, 0.0, 0.45, 1.79, 2.68, 3.13, 3.58, 4.02, 4.47, 6.26, 12.52, 12.52, 12.52, 12.07, 11.62, 11.62, 11.18, 11.18, 11.18, 10.73, 10.28, 10.28, 9.83, 9.39, 8.94, 8.94, 8.49, 8.49, 8.94, 8.94, 9.39, 9.83, 10.28, 10.28, 10.73, 10.28, 10.28, 9.83, 9.83, 9.83, 9.39, 9.39, 8.94, 8.49, 8.49, 8.05, 7.6, 7.6, 7.6, 7.6, 7.6, 7.6, 7.6, 7.6, 7.6, 8.05, 8.05, 8.05, 8.05, 8.05, 8.05, 8.05, 8.05, 7.6, 7.6, 8.05, 8.05, 8.49, 8.94, 8.94, 8.49, 8.49, 8.49, 8.49, 8.49, 8.49, 8.05, 8.05, 7.6, 8.05, 8.49, 8.94, 10.28, 11.62, 0.0, 0.0, 12.96, 13.41, 14.3, 13.86, 13.86, 13.86, 12.52, 10.28, 8.49, 6.26, 3.13, 0.0, -0.89, -1.34, -0.45, 0.45, 1.79, 2.24, 2.24, 2.68, 3.13, 3.13, 12.52, 12.52, 12.52, 12.07, 11.62, 11.18, 11.18, 11.18, 11.18, 10.73, 10.73, 10.73, 9.83, 9.39, 8.94, 8.94, 8.94, 8.94, 8.94, 9.39, 9.83, 10.28, 10.73, 10.73, 10.73, 10.28, 10.28, 9.83, 9.39, 9.39, 9.39, 8.94, 8.94, 8.49, 8.49, 8.05, 8.05, 7.6, 7.6, 7.6, 7.6, 7.6, 7.6, 7.6, 7.6, 8.05, 8.49, 8.05, 8.05, 8.05, 8.05, 8.05, 8.05, 8.05, 8.05, 8.05, 8.49, 8.94, 8.94, 8.94, 8.94, 8.49, 8.49, 8.49, 8.49, 8.49, 8.49, 8.05, 7.6, 8.05, 8.49, 8.94, 9.83, 10.73, 9.39, 0.0, 0.0, 16.54, 16.09, 14.3, 13.86, 13.41, 11.62, 8.94, 6.71, 4.02, 0.89, -0.45, -0.89, -0.89, -0.45, 0.0, 0.89, 1.34, 2.24, 2.68, 2.68, 2.68, 12.52, 12.52, 12.07, 12.07, 11.62, 11.18, 11.18, 11.18, 11.18, 11.18, 11.18, 10.73, 10.28, 9.83, 9.39, 9.39, 9.39, 9.39, 9.83, 9.83, 10.28, 10.28, 10.73, 11.18, 10.73, 10.73, 10.28, 9.83, 9.39, 8.94, 8.94, 8.49, 8.49, 8.49, 8.05, 8.05, 8.05, 8.05, 7.6, 7.6, 7.6, 7.6, 7.6, 7.6, 8.05, 8.05, 8.49, 8.49, 8.05, 8.05, 8.05, 8.05, 8.05, 8.05, 8.49, 8.49, 8.94, 8.94, 8.94, 8.94, 8.94, 8.94, 8.49, 8.49, 8.49, 8.49, 8.49, 8.05, 8.05, 8.05, 8.49, 8.94, 8.94, 9.83, 10.73, 12.07, 12.07, 16.99, 16.99, 14.75, 14.3, 12.96, 10.73, 8.05, 4.92, 1.34, -0.89, -1.79, -1.34, -0.45, 0.45, 1.34, 1.34, 2.24, 2.68, 3.13, 3.13, 3.13, 12.52, 12.52, 12.07, 11.62, 11.62, 11.18, 11.18, 11.18, 11.18, 11.18, 10.73, 10.73, 10.28, 9.83, 9.39, 9.39, 9.39, 9.83, 10.28, 10.28, 10.28, 10.73, 10.73, 11.18, 11.18, 10.73, 10.28, 9.39, 8.94, 8.94, 8.49, 8.49, 8.49, 8.05, 8.05, 8.05, 8.05, 8.05, 7.6, 7.6, 7.6, 7.6, 7.6, 8.05, 8.05, 8.05, 8.49, 8.49, 8.05, 8.49, 8.49, 8.49, 8.49, 8.49, 8.94, 8.94, 8.94, 8.94, 8.94, 8.94, 8.94, 8.94, 8.94, 8.94, 8.94, 8.49, 8.49, 8.05, 8.05, 7.6, 8.05, 8.49, 8.94, 9.83, 11.62, 12.96, 14.3, 15.2, 15.65, 14.75, 15.2, 13.86, 10.28, 7.15, 3.58, 0.0, -2.24, -2.68, -1.79, 0.0, 1.79, 2.24, 2.68, 3.13, 3.58, 4.02, 4.02, 4.02, 12.07, 12.07, 11.62, 11.62, 11.18, 11.18, 11.18, 11.18, 11.18, 10.73, 10.28, 10.28, 9.83, 9.39, 9.39, 9.39, 9.83, 10.28, 10.28, 10.28, 10.28, 10.73, 10.73, 10.73, 10.73, 10.28, 9.83, 9.39, 8.94, 8.49, 8.49, 8.49, 8.49, 8.05, 8.05, 8.05, 8.05, 8.05, 8.05, 8.05, 8.05, 8.05, 8.05, 8.05, 8.05, 8.49, 8.49, 8.49, 8.05, 8.49, 8.49, 8.49, 8.94, 8.94, 8.94, 8.94, 8.94, 8.94, 8.94, 8.94, 8.94, 8.94, 8.94, 8.94, 8.94, 8.49, 8.05, 7.6, 7.15, 7.6, 8.05, 8.49, 9.39, 10.73, 11.62, 12.07, 12.96, 13.86, 14.3, 13.86, 14.3, 15.2, 11.62, 6.71, 2.68, -0.45, -2.24, -2.68, -1.34, 0.89, 3.58, 3.58, 3.58, 3.58, 4.02, 4.02, 4.02, 4.02, 12.07, 12.07, 11.62, 11.62, 11.18, 11.18, 11.18, 11.18, 11.18, 10.73, 10.28, 9.83, 9.39, 9.39, 9.39, 9.83, 9.83, 10.28, 10.73, 10.73, 10.73, 10.73, 10.73, 10.73, 10.28, 9.83, 9.39, 8.94, 8.94, 8.49, 8.49, 8.49, 8.49, 8.49, 8.49, 8.49, 8.05, 8.05, 8.05, 8.05, 8.05, 8.05, 8.05, 8.05, 8.49, 8.49, 8.49, 8.05, 8.05, 8.49, 8.49, 8.94, 8.94, 9.39, 9.39, 8.94, 8.94, 8.94, 8.94, 8.94, 8.94, 8.94, 8.94, 8.94, 8.94, 8.49, 8.05, 7.6, 7.6, 8.05, 8.49, 8.94, 9.83, 10.28, 10.73, 11.18, 11.62, 12.52, 12.96, 12.96, 12.96, 14.75, 14.3, 7.15, 2.24, -0.89, -2.24, -2.24, 0.0, 4.47, 4.92, 4.47, 4.02, 3.58, 3.13, 3.13, 3.13, 3.13, 11.62, 11.62, 11.62, 11.18, 11.18, 10.73, 10.73, 11.18, 11.18, 11.18, 10.73, 10.28, 9.83, 9.83, 9.83, 9.83, 10.28, 10.28, 10.73, 10.73, 10.73, 10.73, 10.73, 10.73, 10.28, 9.83, 9.39, 8.94, 8.94, 8.49, 8.49, 8.49, 8.49, 8.49, 8.49, 8.49, 8.49, 8.05, 8.05, 8.05, 8.05, 8.05, 8.05, 8.05, 8.05, 8.05, 8.05, 8.05, 8.49, 8.49, 8.94, 8.94, 9.39, 9.39, 9.39, 9.39, 8.94, 8.94, 8.94, 8.94, 8.94, 8.94, 8.94, 8.94, 8.49, 8.49, 8.05, 7.6, 7.6, 8.05, 8.05, 8.94, 8.94, 9.39, 9.83, 10.28, 10.73, 11.62, 12.07, 12.07, 12.07, 12.96, 14.75, 9.83, 0.89, -1.79, -2.24, -0.89, 4.92, 5.36, 4.92, 4.47, 4.02, 3.13, 2.24, 2.24, 2.24, 2.24, 11.62, 11.62, 11.18, 11.18, 10.73, 10.73, 10.73, 11.18, 11.18, 11.18, 11.18, 10.73, 10.28, 9.83, 9.83, 9.83, 10.28, 10.28, 10.28, 10.28, 10.28, 10.28, 10.28, 10.28, 10.28, 9.83, 9.39, 9.39, 8.94, 8.94, 8.94, 8.94, 8.94, 8.49, 8.49, 8.49, 8.49, 8.05, 8.05, 8.05, 8.05, 8.05, 8.05, 8.05, 8.05, 8.05, 8.05, 8.49, 8.49, 8.94, 8.94, 9.39, 9.39, 9.83, 9.39, 9.39, 8.94, 8.94, 8.94, 8.94, 8.94, 8.94, 8.94, 8.49, 8.49, 8.05, 8.05, 7.6, 7.6, 7.6, 7.6, 8.05, 8.49, 8.94, 9.39, 9.83, 10.28, 10.28, 10.73, 10.73, 10.73, 10.73, 11.62, 13.41, 3.58, -2.68, 0.89, 5.36, 7.6, 6.26, 3.58, 3.13, 3.13, 2.68, 2.68, 3.58, 3.58, 3.58, 11.62, 11.62, 11.18, 11.18, 11.18, 11.18, 11.18, 11.62, 11.62, 11.62, 11.18, 10.73, 10.28, 10.28, 9.83, 9.83, 10.28, 10.28, 10.28, 10.28, 10.28, 10.28, 10.28, 10.28, 9.83, 9.83, 9.83, 9.39, 9.39, 8.94, 8.94, 8.94, 8.94, 8.94, 8.49, 8.49, 8.49, 8.05, 8.05, 8.05, 8.05, 8.05, 8.05, 8.05, 8.05, 8.05, 8.49, 8.49, 8.94, 8.94, 9.39, 9.39, 9.83, 9.39, 9.39, 9.39, 8.94, 8.94, 8.94, 8.94, 8.94, 8.94, 8.94, 8.49, 8.49, 8.05, 7.6, 7.6, 7.15, 7.15, 7.6, 8.05, 7.6, 8.49, 8.94, 8.94, 9.39, 9.83, 9.83, 10.28, 9.83, 8.94, 7.6, 11.62, 10.73, -1.34, 2.68, 7.15, 8.94, 8.05, 4.02, 2.24, 2.68, 3.58, 4.47, 4.92, 4.92, 4.92, 11.62, 11.62, 11.62, 11.62, 11.62, 11.62, 11.62, 11.62, 11.62, 11.62, 11.18, 10.73, 10.73, 10.28, 10.28, 10.28, 10.28, 10.73, 10.73, 10.73, 10.73, 10.28, 10.28, 10.28, 9.83, 9.83, 9.83, 9.83, 9.39, 9.39, 9.39, 8.94, 8.94, 8.49, 8.49, 8.49, 8.05, 8.05, 8.05, 8.05, 8.05, 8.05, 8.05, 8.05, 8.05, 8.49, 8.49, 8.94, 8.94, 9.39, 9.39, 9.83, 9.83, 9.39, 9.39, 9.39, 8.94, 8.94, 8.94, 8.94, 8.94, 8.94, 8.49, 8.49, 8.05, 8.05, 7.15, 6.71, 6.71, 7.6, 7.6, 7.6, 7.6, 7.15, 8.05, 8.49, 8.94, 9.39, 9.39, 9.39, 8.49, 7.6, 0.0, 0.0, 0.0, -1.34, 3.13, 6.71, 7.6, 7.15, 5.36, 3.13, 3.58, 5.36, 6.26, 6.26, 6.26, 6.26, 11.62, 11.62, 11.62, 11.62, 11.62, 12.07, 12.07, 12.07, 12.07, 11.62, 11.18, 10.73, 10.73, 10.73, 10.73, 10.73, 10.73, 10.73, 10.73, 10.73, 10.73, 10.73, 10.28, 10.28, 9.83, 9.83, 9.83, 9.83, 9.83, 9.39, 9.39, 8.94, 8.94, 8.49, 8.49, 8.05, 8.05, 8.05, 8.05, 8.05, 8.05, 8.05, 8.05, 8.05, 8.49, 8.49, 8.94, 8.94, 9.39, 9.39, 9.83, 9.83, 9.83, 9.39, 9.39, 9.39, 8.94, 8.94, 8.94, 8.94, 8.94, 8.94, 8.49, 8.49, 8.05, 7.6, 7.15, 6.71, 6.71, 7.15, 7.15, 7.15, 7.15, 7.6, 7.6, 8.49, 8.94, 8.94, 9.39, 8.49, 8.05, 0.0, 0.0, 18.78, 2.68, -0.45, 3.58, 5.81, 5.36, 4.92, 5.36, 5.36, 6.26, 7.15, 7.15, 6.71, 6.71, 6.71, 12.07, 12.07, 12.07, 12.07, 12.07, 12.07, 12.07, 12.07, 12.07, 11.62, 11.18, 11.18, 10.73, 10.73, 10.73, 10.73, 11.18, 11.18, 10.73, 10.73, 10.73, 10.73, 10.28, 10.28, 9.83, 9.83, 9.83, 9.83, 9.83, 9.39, 9.39, 8.94, 8.94, 8.49, 8.49, 8.05, 8.05, 8.05, 8.05, 8.05, 8.05, 8.05, 8.05, 8.49, 8.49, 8.94, 8.94, 9.39, 9.39, 9.83, 9.83, 9.83, 9.39, 9.39, 9.39, 9.39, 8.94, 8.94, 8.94, 8.94, 8.94, 8.94, 8.49, 8.49, 8.05, 7.6, 7.15, 6.71, 6.71, 6.71, 6.71, 6.71, 7.15, 7.6, 7.6, 8.05, 8.05, 8.05, 8.49, 8.05, 7.15, 0.0, 0.0, 19.22, 6.71, 0.0, 3.58, 5.81, 4.92, 4.92, 6.26, 8.05, 8.49, 8.05, 7.6, 6.71, 6.71, 6.71, 12.07, 12.07, 12.07, 12.07, 12.07, 12.07, 12.07, 12.07, 11.62, 11.62, 11.62, 11.18, 11.18, 10.73, 11.18, 11.18, 11.18, 10.73, 10.73, 10.73, 10.73, 10.73, 10.28, 10.28, 9.83, 9.83, 9.83, 9.83, 9.39, 9.39, 9.39, 8.94, 8.94, 8.49, 8.49, 8.05, 8.05, 8.05, 8.05, 8.05, 8.05, 8.49, 8.49, 8.49, 8.94, 8.94, 9.39, 9.39, 9.83, 9.83, 9.83, 9.83, 9.39, 9.39, 9.39, 8.94, 8.94, 8.94, 8.94, 8.94, 8.94, 8.94, 8.49, 8.49, 8.05, 7.15, 6.71, 6.71, 6.71, 6.71, 6.71, 6.71, 6.71, 6.71, 7.15, 7.15, 7.15, 7.15, 7.6, 7.6, 6.71, 0.0, 0.0, 17.43, 10.73, -0.45, 1.34, 5.36, 6.26, 7.15, 9.39, 10.28, 9.39, 8.49, 7.15, 6.26, 6.26, 6.26, 12.52, 12.52, 12.52, 12.52, 12.52, 12.07, 12.07, 11.62, 11.62, 11.62, 11.62, 11.18, 10.73, 10.73, 11.18, 11.18, 10.73, 10.28, 10.28, 9.83, 10.28, 10.28, 10.28, 9.83, 9.83, 9.83, 9.39, 9.39, 9.39, 9.39, 8.94, 8.94, 8.49, 8.49, 8.49, 8.05, 8.05, 8.05, 8.05, 8.05, 8.49, 8.49, 8.49, 8.94, 8.94, 9.39, 9.39, 9.83, 9.83, 9.83, 9.83, 9.39, 9.39, 9.39, 8.94, 8.94, 8.94, 8.94, 8.94, 8.94, 8.94, 8.49, 8.49, 8.05, 7.6, 7.15, 6.71, 6.26, 6.26, 6.71, 6.71, 6.26, 6.26, 6.71, 7.15, 7.15, 6.71, 7.15, 7.6, 7.6, 6.71, 0.0, 0.0, 0.0, 18.78, 2.68, 1.79, 6.71, 9.83, 10.73, 11.18, 11.18, 9.83, 8.05, 6.71, 5.36, 5.36, 5.36, 12.52, 12.52, 12.52, 12.52, 12.07, 12.07, 11.62, 11.62, 11.18, 11.18, 10.73, 10.73, 10.73, 10.73, 11.18, 10.73, 10.28, 9.83, 9.39, 9.39, 9.83, 10.28, 10.28, 9.83, 9.83, 9.39, 9.39, 9.39, 9.39, 8.94, 8.94, 8.94, 8.49, 8.49, 8.49, 8.49, 8.05, 8.05, 8.05, 8.49, 8.49, 8.49, 8.94, 8.94, 9.39, 9.39, 9.83, 9.83, 9.83, 9.83, 9.83, 9.39, 9.39, 8.94, 8.94, 8.94, 8.94, 8.94, 8.94, 8.94, 8.94, 8.49, 8.49, 8.05, 7.6, 6.71, 6.71, 6.26, 6.26, 6.26, 6.26, 5.81, 5.81, 6.26, 6.71, 6.71, 6.71, 6.71, 7.15, 7.6, 0.0, 0.0, 0.0, 0.0, 20.12, 13.41, 6.71, 8.94, 11.62, 12.07, 11.62, 10.73, 9.83, 8.05, 6.26, 4.92, 4.92, 4.92, 12.52, 12.52, 12.52, 12.07, 12.07, 11.62, 11.62, 11.62, 11.18, 10.73, 10.73, 10.28, 10.73, 11.18, 11.18, 11.18, 10.28, 9.83, 9.39, 9.39, 9.39, 9.83, 9.83, 9.83, 9.39, 9.39, 9.39, 8.94, 8.94, 8.94, 8.94, 8.94, 8.94, 8.49, 8.49, 8.49, 8.49, 8.49, 8.49, 8.49, 8.94, 8.94, 9.39, 9.39, 9.39, 9.83, 9.83, 9.83, 9.83, 9.83, 9.39, 9.39, 8.94, 8.94, 8.94, 8.94, 8.94, 8.94, 8.94, 8.94, 8.94, 8.49, 8.05, 7.6, 7.15, 6.71, 6.71, 6.26, 6.26, 6.26, 5.81, 5.36, 5.81, 6.26, 6.26, 6.71, 7.15, 7.15, 7.6, 8.49, 8.94, 0.0, 0.0, 0.0, 16.54, 21.46, 13.41, 11.62, 12.07, 11.62, 10.73, 10.28, 9.83, 8.49, 6.26, 4.92, 4.92, 4.92, 12.52, 12.52, 12.07, 12.07, 11.62, 11.62, 11.62, 11.18, 11.18, 11.18, 10.73, 10.73, 10.73, 11.18, 11.62, 11.62, 10.73, 10.28, 9.83, 9.39, 9.39, 9.39, 9.83, 9.83, 9.39, 8.94, 8.94, 8.94, 8.94, 8.94, 8.94, 8.94, 8.94, 8.49, 8.49, 8.49, 8.49, 8.49, 8.94, 8.94, 8.94, 9.39, 9.39, 9.39, 9.83, 9.83, 9.83, 9.83, 9.83, 9.83, 9.39, 8.94, 8.94, 8.94, 8.94, 8.94, 8.94, 8.94, 8.94, 8.94, 8.49, 8.49, 8.05, 7.6, 7.15, 6.71, 6.71, 6.26, 6.26, 5.81, 5.81, 5.36, 5.36, 5.81, 6.26, 6.71, 7.15, 7.15, 7.6, 8.94, 9.83, 0.0, 0.0, 0.0, 15.65, 21.46, 16.99, 13.41, 12.07, 11.18, 10.28, 9.83, 9.39, 8.49, 6.26, 4.47, 4.47, 4.47, 12.52, 12.52, 12.07, 12.07, 11.62, 11.62, 11.62, 11.62, 11.62, 11.18, 11.18, 11.18, 11.18, 11.62, 11.62, 11.62, 11.62, 10.73, 10.28, 9.39, 9.39, 9.39, 9.39, 9.39, 9.39, 8.94, 8.94, 8.94, 8.94, 8.94, 8.94, 8.94, 8.94, 8.49, 8.49, 8.49, 8.49, 8.94, 8.94, 9.39, 9.39, 9.39, 9.39, 9.83, 9.83, 9.83, 9.83, 9.83, 9.83, 9.39, 9.39, 8.94, 8.94, 8.94, 8.94, 8.94, 9.39, 8.94, 8.94, 8.94, 8.49, 8.05, 7.6, 7.15, 7.15, 6.71, 6.71, 6.26, 6.26, 5.81, 5.81, 5.36, 5.36, 5.81, 5.81, 6.26, 6.71, 7.15, 7.6, 8.05, 9.39, 8.49, 0.0, 0.0, 14.3, 20.12, 18.33, 14.75, 12.52, 10.73, 9.39, 8.94, 8.49, 7.6, 5.81, 4.02, 4.02, 4.02, 12.96, 12.96, 12.52, 12.07, 12.07, 12.07, 12.07, 12.07, 12.07, 11.62, 11.62, 11.62, 11.62, 11.62, 11.62, 11.62, 11.62, 11.18, 10.73, 10.28, 9.83, 9.39, 9.39, 9.39, 9.39, 8.94, 8.94, 8.94, 8.94, 8.94, 8.94, 8.94, 8.94, 8.94, 8.94, 8.94, 8.94, 8.94, 9.39, 9.39, 9.39, 9.39, 9.83, 9.83, 9.83, 9.83, 9.83, 9.83, 9.39, 9.39, 8.94, 8.94, 8.94, 8.94, 8.94, 9.39, 9.39, 8.94, 8.94, 8.49, 8.49, 8.05, 7.6, 7.15, 7.15, 6.71, 6.26, 6.26, 5.81, 5.81, 5.81, 5.36, 5.36, 5.36, 5.81, 6.26, 6.26, 6.71, 7.15, 8.05, 8.49, 9.39, 0.0, 0.0, 12.52, 17.88, 18.33, 15.65, 12.96, 10.73, 8.94, 7.6, 6.71, 6.26, 4.92, 3.58, 3.58, 3.58, 12.96, 12.96, 12.52, 12.07, 12.07, 12.07, 12.07, 12.07, 12.07, 11.62, 11.62, 11.62, 11.62, 11.62, 11.62, 11.62, 11.62, 11.18, 10.73, 10.28, 9.83, 9.39, 9.39, 9.39, 9.39, 8.94, 8.94, 8.94, 8.94, 8.94, 8.94, 8.94, 8.94, 8.94, 8.94, 8.94, 8.94, 8.94, 9.39, 9.39, 9.39, 9.39, 9.83, 9.83, 9.83, 9.83, 9.83, 9.83, 9.39, 9.39, 8.94, 8.94, 8.94, 8.94, 8.94, 9.39, 9.39, 8.94, 8.94, 8.49, 8.49, 8.05, 7.6, 7.15, 7.15, 6.71, 6.26, 6.26, 5.81, 5.81, 5.81, 5.36, 5.36, 5.36, 5.81, 6.26, 6.71, 6.71, 7.15, 8.05, 8.49, 9.39, 9.83, 9.83, 12.07, 15.2, 16.99, 16.54, 14.3, 11.18, 8.94, 6.71, 5.36, 4.47, 3.58, 3.13, 3.13, 3.13]}, {"header": {"parameterCategory": 1, "parameterNumber": 3, "dx": 0.06612293990616946, "dy": 0.0552356325346848, "nx": 98, "ny": 59, "la1": 35.046912555036876, "la2": 31.78801023549047, "lo1": -121.43107172385933, "lo2": -114.95102361305473, "refTime": "2026041303"}, "data": [1.79, 2.24, 3.13, 3.58, 4.02, 4.47, 4.92, 4.92, 5.36, 5.36, 5.81, 5.81, 5.81, 5.81, 6.26, 6.26, 6.26, 6.26, 6.71, 7.15, 8.05, 8.94, 9.39, 9.83, 9.83, 10.28, 10.73, 11.18, 11.62, 12.07, 12.07, 11.62, 11.18, 10.28, 8.49, 6.26, 3.58, 0.89, 0.0, 0.0, 0.89, 4.02, 6.71, 5.81, 4.02, 4.92, 5.81, 5.81, 6.26, 6.71, 7.6, 8.49, 8.94, 9.83, 9.83, 9.83, 9.83, 9.83, 9.83, 9.83, 9.83, 9.83, 8.94, 8.05, 6.71, 7.6, 9.39, 11.18, 12.52, 12.52, 12.07, 11.62, 11.18, 10.73, 10.73, 10.73, 9.39, 7.6, 6.71, 6.71, 6.26, 4.92, 3.58, 2.68, 2.68, 4.47, 6.71, 8.94, 9.83, 9.83, 8.94, 8.49, 8.05, 8.05, 8.49, 8.49, 8.94, 8.94, 1.79, 2.68, 3.13, 3.58, 4.02, 4.47, 4.92, 4.92, 4.92, 5.36, 5.81, 5.81, 5.81, 5.81, 5.81, 5.36, 5.36, 5.81, 6.26, 6.71, 7.6, 8.49, 9.39, 10.28, 10.73, 10.73, 10.28, 10.28, 11.18, 12.52, 13.86, 13.86, 13.41, 12.52, 10.28, 8.05, 5.81, 2.68, 1.79, 2.24, 4.92, 7.6, 7.15, 6.26, 5.81, 5.81, 5.81, 6.26, 6.71, 7.6, 8.49, 8.94, 9.83, 9.83, 9.39, 9.39, 9.39, 9.83, 10.28, 10.28, 10.28, 9.83, 8.49, 7.15, 6.71, 7.6, 9.39, 10.73, 12.52, 13.41, 12.96, 12.52, 11.62, 11.18, 10.73, 9.83, 8.49, 7.6, 6.71, 6.71, 6.26, 4.92, 3.58, 2.68, 2.68, 4.47, 6.71, 8.94, 9.83, 9.83, 8.94, 8.49, 8.05, 8.05, 8.49, 8.49, 8.94, 8.94, 2.24, 2.68, 3.13, 3.58, 4.02, 4.47, 4.47, 4.47, 4.92, 5.36, 5.36, 5.81, 5.81, 5.36, 5.36, 4.92, 4.92, 5.36, 5.81, 6.26, 7.15, 7.6, 8.49, 9.83, 10.73, 11.18, 11.18, 10.73, 10.73, 11.62, 12.52, 13.86, 15.2, 14.3, 10.28, 7.15, 8.05, 7.15, 6.26, 6.71, 7.6, 7.15, 6.26, 6.26, 6.26, 6.26, 6.26, 6.71, 7.15, 8.05, 8.94, 9.39, 9.39, 9.39, 9.39, 9.39, 9.39, 9.83, 10.28, 9.83, 10.28, 9.39, 7.6, 6.71, 6.71, 7.6, 9.39, 11.18, 12.96, 13.41, 12.96, 12.52, 11.62, 11.18, 9.83, 8.49, 6.71, 6.71, 6.26, 6.26, 5.81, 4.47, 2.68, 2.24, 3.13, 4.92, 7.15, 9.39, 10.28, 9.83, 9.39, 8.49, 8.49, 8.94, 8.94, 8.49, 8.49, 8.94, 2.24, 2.68, 3.13, 3.58, 4.02, 4.02, 4.02, 4.47, 4.92, 4.92, 5.36, 5.36, 5.36, 5.36, 4.92, 4.47, 4.47, 4.92, 5.36, 6.26, 6.71, 7.6, 8.05, 8.49, 9.39, 10.73, 11.18, 11.18, 11.18, 10.73, 9.83, 10.73, 0.0, 0.0, 0.0, 0.0, 0.0, 4.92, 7.6, 7.6, 7.6, 7.15, 6.71, 6.71, 6.71, 6.71, 6.71, 7.15, 8.05, 8.49, 9.39, 9.39, 9.39, 9.39, 9.39, 9.83, 9.83, 9.83, 9.83, 9.83, 9.39, 8.05, 6.71, 6.71, 7.15, 8.49, 11.62, 13.86, 14.75, 14.75, 13.86, 12.96, 11.62, 10.73, 8.49, 6.71, 5.36, 5.36, 6.26, 5.81, 4.92, 3.13, 1.79, 1.79, 3.13, 6.26, 9.39, 10.73, 10.28, 9.83, 9.39, 8.94, 8.94, 8.94, 8.94, 8.49, 8.49, 8.49, 2.24, 3.13, 3.13, 3.58, 4.02, 4.02, 4.02, 4.47, 4.47, 4.92, 4.92, 4.92, 4.92, 4.92, 4.92, 4.47, 4.47, 4.47, 4.92, 5.81, 6.71, 7.6, 8.05, 8.49, 8.94, 8.94, 9.39, 10.28, 11.18, 10.28, 8.49, 7.6, 0.0, 0.0, 0.0, 0.0, 0.0, 0.0, 5.36, 6.26, 6.71, 7.6, 7.6, 7.6, 7.6, 7.6, 7.6, 8.05, 8.94, 9.39, 9.39, 8.94, 8.94, 9.39, 9.83, 10.28, 10.28, 9.83, 9.39, 9.83, 8.49, 7.15, 6.26, 7.15, 8.94, 11.18, 13.41, 14.75, 15.2, 15.2, 14.3, 13.86, 12.52, 10.28, 7.6, 4.92, 4.02, 4.47, 4.92, 5.36, 4.02, 2.24, 1.34, 2.24, 4.92, 8.94, 10.73, 10.73, 10.28, 9.83, 9.39, 9.39, 9.83, 9.39, 8.49, 8.05, 8.05, 8.49, 2.24, 3.13, 3.13, 3.58, 3.58, 4.02, 4.02, 4.02, 4.47, 4.92, 4.92, 4.92, 4.47, 4.47, 4.47, 4.02, 4.02, 4.47, 4.92, 5.81, 6.26, 6.71, 7.15, 7.6, 7.6, 7.6, 0.0, 0.0, 0.0, 8.49, 8.05, 7.6, 6.26, 0.0, 0.0, 0.0, 0.0, 0.0, 4.92, 5.81, 6.26, 8.05, 8.94, 9.39, 9.39, 9.39, 9.39, 9.83, 9.83, 9.83, 9.39, 9.39, 9.39, 9.83, 10.28, 10.28, 9.83, 8.49, 8.05, 8.05, 7.15, 6.26, 6.71, 8.94, 12.07, 14.3, 14.75, 14.3, 13.41, 12.52, 12.52, 12.07, 11.18, 9.39, 7.15, 4.92, 3.58, 3.58, 4.02, 4.47, 3.13, 1.34, 1.79, 4.02, 6.71, 9.39, 9.83, 9.83, 10.28, 9.39, 8.94, 9.39, 9.83, 9.39, 8.05, 7.15, 7.6, 8.05, 2.68, 2.68, 3.13, 3.58, 3.58, 3.58, 4.02, 4.02, 4.47, 4.47, 4.47, 4.47, 4.47, 4.02, 4.02, 3.58, 4.02, 4.02, 4.47, 5.36, 5.81, 6.26, 5.81, 5.81, 6.26, 6.71, 0.0, 0.0, 6.71, 7.15, 7.6, 7.6, 5.36, 0.0, 0.0, 0.0, 0.0, 0.0, 4.92, 5.81, 5.81, 6.71, 7.6, 8.05, 9.39, 9.83, 10.73, 11.18, 10.73, 9.83, 9.39, 9.83, 10.28, 10.73, 10.73, 10.28, 9.39, 8.05, 6.71, 6.26, 5.36, 5.81, 8.49, 12.07, 14.3, 14.75, 14.3, 12.96, 10.28, 8.49, 8.49, 8.05, 6.71, 5.81, 5.36, 4.92, 4.02, 3.58, 3.13, 2.24, 2.24, 1.34, 2.24, 4.92, 7.6, 9.39, 9.83, 9.83, 9.39, 8.94, 8.49, 8.94, 9.83, 9.39, 7.6, 6.71, 7.15, 8.05, 2.68, 2.68, 3.13, 3.13, 3.58, 3.58, 3.58, 4.02, 4.02, 4.47, 4.47, 4.47, 4.02, 4.02, 3.58, 3.58, 3.58, 4.02, 4.47, 4.92, 5.36, 5.81, 5.81, 5.36, 4.92, 5.81, 6.26, 6.71, 6.71, 6.71, 0.0, 0.0, 0.0, 0.0, 0.0, 0.0, 0.0, 0.0, 0.0, 5.36, 6.26, 5.81, 6.26, 7.15, 7.6, 8.49, 9.39, 10.73, 11.18, 10.28, 10.28, 10.73, 11.18, 11.18, 11.18, 10.73, 9.39, 7.6, 5.36, 4.02, 4.47, 6.26, 10.28, 13.41, 14.75, 14.3, 12.96, 11.62, 9.39, 7.15, 5.81, 4.92, 3.13, 3.13, 4.02, 4.02, 4.47, 4.02, 3.13, 1.79, 0.89, 0.89, 2.24, 4.47, 7.15, 8.94, 8.94, 8.49, 7.6, 8.05, 8.94, 9.39, 9.39, 8.49, 7.15, 6.71, 7.15, 7.6, 2.68, 2.68, 3.13, 3.13, 3.13, 3.13, 3.58, 3.58, 4.02, 4.02, 4.02, 4.02, 3.58, 4.02, 3.58, 3.58, 3.58, 4.02, 4.47, 4.92, 5.36, 5.36, 5.36, 4.92, 4.47, 4.92, 5.36, 5.81, 6.26, 5.36, 0.0, 0.0, 0.0, 0.0, 2.24, 1.34, 1.34, 1.79, 3.58, 5.81, 6.26, 5.81, 5.36, 5.81, 6.71, 7.6, 8.05, 9.39, 10.73, 11.18, 11.18, 11.62, 12.07, 12.07, 12.07, 11.18, 8.94, 6.26, 3.58, 3.13, 5.36, 8.49, 12.07, 14.3, 14.75, 13.86, 12.07, 11.62, 10.28, 7.6, 5.36, 2.68, 1.79, 2.68, 3.58, 3.58, 2.68, 3.13, 3.58, 3.13, 3.13, 0.89, 2.24, 4.47, 6.71, 7.6, 7.6, 7.15, 7.15, 8.05, 8.94, 8.94, 8.49, 7.15, 6.26, 6.71, 7.15, 7.15, 2.24, 2.68, 2.68, 3.13, 3.13, 3.13, 3.13, 3.58, 3.58, 4.02, 3.58, 3.58, 3.13, 3.58, 3.58, 3.58, 4.02, 4.02, 4.47, 4.92, 4.92, 4.92, 4.47, 4.47, 4.47, 4.92, 5.36, 5.36, 5.36, 5.81, 5.36, 4.02, 3.58, 3.13, 2.68, 1.79, 3.13, 4.92, 5.81, 6.26, 5.36, 4.92, 4.92, 5.36, 6.26, 7.15, 7.6, 8.94, 9.83, 11.18, 12.07, 12.96, 13.41, 13.41, 13.41, 12.96, 11.62, 5.81, 2.68, 4.47, 8.49, 12.07, 13.86, 14.75, 15.2, 14.75, 12.96, 12.96, 10.73, 6.71, 3.58, 1.79, 1.34, 1.79, 2.24, 2.24, 2.24, 3.58, 5.36, 6.71, 7.15, 8.49, 4.47, 5.81, 6.26, 6.71, 6.26, 6.71, 7.15, 8.05, 8.49, 8.49, 7.6, 6.26, 5.81, 6.26, 7.15, 7.6, 2.24, 2.68, 2.68, 2.68, 2.68, 3.13, 3.13, 3.58, 3.58, 3.58, 3.13, 3.13, 2.68, 3.13, 3.13, 3.58, 3.58, 4.02, 4.02, 4.47, 4.47, 4.47, 4.47, 4.47, 5.36, 5.36, 4.92, 4.92, 4.47, 4.47, 4.47, 4.47, 4.47, 4.47, 4.47, 5.36, 6.71, 6.26, 5.81, 5.36, 4.92, 4.92, 4.92, 5.36, 5.81, 6.71, 7.6, 8.49, 9.39, 10.73, 12.07, 13.41, 14.75, 15.65, 16.54, 16.99, 15.65, 9.39, 4.02, 7.15, 12.07, 14.75, 15.2, 15.65, 16.09, 16.09, 16.99, 16.54, 13.41, 6.26, 1.79, 1.34, 1.79, 1.34, 0.89, 0.89, 1.79, 3.58, 5.81, 8.05, 10.28, 11.62, 11.62, 7.6, 6.71, 6.26, 6.26, 6.71, 7.6, 8.05, 8.05, 7.6, 7.15, 5.81, 5.36, 5.81, 7.15, 7.6, 2.24, 2.24, 2.68, 2.68, 2.68, 2.68, 3.13, 3.13, 3.13, 3.13, 3.13, 2.68, 2.68, 2.68, 3.13, 3.58, 3.58, 3.58, 4.02, 4.47, 4.47, 4.47, 4.47, 4.92, 4.92, 5.36, 5.36, 5.36, 4.92, 4.92, 4.92, 5.36, 5.36, 5.36, 5.36, 4.92, 4.47, 4.02, 4.02, 4.47, 4.92, 4.92, 4.92, 5.36, 5.81, 6.71, 7.6, 8.94, 9.83, 10.28, 9.83, 0.0, 0.0, 0.0, 0.0, 0.0, 0.0, 0.0, 4.92, 9.39, 14.3, 16.09, 16.09, 16.09, 16.09, 15.65, 17.43, 20.12, 17.88, 9.39, 1.79, 0.45, 0.89, 0.45, 0.0, 1.34, 3.13, 5.81, 7.6, 9.39, 10.73, 12.07, 12.52, 10.28, 8.49, 8.05, 7.6, 7.6, 8.49, 8.49, 8.49, 8.05, 7.15, 5.81, 5.36, 6.71, 7.6, 7.6, 2.24, 2.24, 2.24, 2.24, 2.68, 2.68, 2.68, 2.68, 2.68, 2.68, 2.68, 2.24, 2.24, 2.68, 2.68, 3.13, 3.58, 3.58, 3.58, 4.02, 4.47, 4.47, 4.47, 4.92, 4.92, 5.36, 5.36, 4.92, 4.92, 4.92, 5.36, 5.81, 5.81, 5.81, 4.92, 4.47, 4.02, 4.47, 4.47, 4.47, 4.92, 4.92, 5.36, 5.81, 5.81, 6.26, 7.15, 8.49, 8.94, 7.15, 0.0, 0.0, 0.0, 0.0, 0.0, 0.0, 0.0, 0.0, 0.0, 11.62, 14.3, 15.2, 16.09, 16.99, 15.65, 0.0, 0.0, 0.0, 0.0, 0.0, 0.0, -0.45, -0.89, 0.0, 1.79, 4.47, 6.71, 8.94, 10.28, 10.73, 10.73, 11.18, 10.73, 10.73, 11.18, 10.73, 9.83, 8.94, 8.94, 8.49, 8.49, 8.05, 7.15, 6.26, 6.26, 7.15, 7.6, 7.15, 1.79, 2.24, 2.24, 2.24, 2.24, 2.24, 2.68, 2.68, 2.68, 2.68, 2.24, 2.24, 2.24, 2.24, 2.68, 2.68, 3.13, 3.13, 3.13, 3.58, 4.02, 4.47, 4.47, 4.92, 4.92, 5.36, 4.92, 4.92, 4.02, 4.02, 4.47, 4.92, 5.81, 5.81, 4.92, 4.47, 4.47, 4.47, 4.47, 4.47, 4.47, 4.92, 5.36, 5.36, 5.81, 5.36, 5.81, 6.71, 7.6, 8.05, 7.6, 0.0, 0.0, 0.0, 0.0, 0.0, 0.0, 0.0, 0.0, 13.86, 14.3, 13.86, 14.3, 14.3, 0.0, 0.0, 0.0, 0.0, 0.0, 0.0, 0.0, 0.0, 0.0, 0.0, 8.05, 9.39, 10.73, 11.62, 12.07, 12.07, 10.73, 9.83, 8.49, 8.49, 10.73, 10.73, 11.18, 10.28, 9.39, 8.94, 8.49, 8.05, 7.6, 7.6, 7.15, 7.15, 7.15, 7.15, 1.79, 1.79, 1.79, 2.24, 2.24, 2.24, 2.24, 2.24, 2.24, 2.24, 2.24, 2.24, 2.24, 2.24, 2.68, 2.68, 2.68, 2.68, 3.13, 3.58, 4.02, 4.47, 4.47, 4.92, 4.92, 5.36, 4.92, 4.92, 4.47, 4.02, 4.47, 4.92, 5.36, 5.36, 5.36, 5.36, 4.92, 4.92, 4.92, 4.92, 4.47, 4.92, 4.92, 5.36, 5.36, 5.36, 5.36, 5.36, 5.81, 6.26, 6.71, 6.71, 6.26, 5.36, 4.92, 4.47, 0.0, 0.0, 0.0, 12.52, 12.07, 11.62, 11.62, 9.83, 0.0, 0.0, 0.0, 0.0, 0.0, 0.0, 0.0, 0.0, 0.0, 0.0, 8.49, 12.96, 12.96, 12.52, 12.07, 11.62, 10.28, 8.49, 7.6, 7.6, 7.6, 8.94, 10.28, 10.73, 9.83, 8.94, 8.94, 8.94, 8.49, 8.05, 8.05, 7.15, 6.71, 6.71, 1.79, 1.79, 1.79, 1.79, 1.79, 2.24, 2.24, 2.24, 2.24, 1.79, 1.79, 2.24, 2.24, 2.24, 2.68, 2.68, 2.68, 2.68, 3.13, 3.58, 4.02, 4.47, 4.47, 4.92, 4.92, 4.92, 4.92, 4.92, 4.92, 4.92, 4.92, 5.36, 5.36, 5.81, 5.81, 5.81, 5.81, 5.81, 5.36, 4.92, 4.92, 4.92, 4.92, 4.92, 4.92, 4.92, 4.92, 4.47, 4.02, 4.47, 4.47, 4.47, 4.47, 4.92, 4.47, 4.47, 4.92, 5.36, 0.0, 9.83, 9.39, 9.39, 8.94, 8.94, 8.94, 0.0, 0.0, 0.0, 0.0, 0.0, 0.0, 0.0, 0.0, 0.0, 10.73, 12.96, 12.96, 12.52, 11.62, 10.73, 9.83, 8.49, 8.05, 7.6, 7.6, 8.05, 8.94, 9.39, 9.83, 9.39, 9.39, 9.39, 8.49, 8.05, 8.05, 7.6, 6.71, 6.71, 1.79, 1.79, 1.79, 1.79, 1.79, 2.24, 2.24, 2.24, 1.79, 1.79, 1.79, 1.79, 2.24, 2.24, 2.68, 2.68, 2.68, 2.68, 3.13, 3.58, 4.02, 4.47, 4.47, 4.92, 4.92, 4.92, 4.92, 4.92, 4.47, 4.92, 5.36, 5.81, 5.81, 6.26, 6.26, 6.71, 6.71, 6.26, 5.81, 5.36, 4.92, 4.92, 4.92, 4.92, 4.92, 4.92, 4.47, 4.47, 4.47, 4.47, 4.47, 4.47, 4.47, 4.47, 4.02, 4.02, 4.02, 4.02, 4.92, 6.26, 7.15, 7.15, 7.6, 7.6, 6.71, 7.15, 8.94, 0.0, 0.0, 0.0, 0.0, 0.0, 0.0, 0.0, 11.18, 11.18, 11.62, 12.07, 11.18, 10.28, 9.83, 9.83, 9.39, 9.39, 8.94, 8.94, 8.49, 8.94, 8.94, 8.94, 10.28, 10.28, 8.94, 8.05, 8.05, 7.6, 7.15, 7.15, 1.79, 1.79, 1.79, 1.79, 1.79, 1.79, 2.24, 2.24, 1.79, 1.79, 1.79, 2.24, 2.24, 2.68, 2.68, 2.68, 2.68, 3.13, 3.58, 3.58, 4.02, 4.47, 4.47, 4.92, 4.47, 4.47, 4.47, 4.02, 4.02, 4.47, 5.36, 5.81, 6.26, 6.26, 6.71, 6.71, 6.71, 6.71, 6.26, 5.81, 5.36, 5.36, 4.92, 4.92, 4.92, 4.47, 4.47, 4.47, 4.47, 4.47, 4.92, 5.36, 5.36, 4.47, 4.02, 3.58, 3.58, 3.58, 4.02, 4.92, 5.81, 6.26, 7.15, 7.15, 6.26, 5.81, 7.15, 6.26, 0.0, 0.0, 0.0, 0.0, 0.0, 8.94, 8.94, 8.49, 8.05, 8.49, 8.94, 8.49, 7.6, 8.05, 9.83, 10.28, 9.83, 8.94, 8.49, 8.49, 8.05, 8.49, 9.83, 11.18, 9.83, 8.05, 8.05, 7.6, 7.15, 7.15, 1.34, 1.79, 1.79, 1.79, 1.79, 1.79, 2.24, 2.24, 2.24, 2.24, 2.24, 2.24, 2.68, 2.68, 2.68, 2.68, 3.13, 3.13, 3.58, 4.02, 4.02, 4.47, 4.47, 4.47, 4.92, 4.47, 4.02, 4.02, 4.02, 4.47, 4.92, 5.81, 6.26, 6.71, 6.71, 6.71, 6.71, 6.26, 6.26, 5.81, 5.36, 5.36, 4.92, 4.92, 4.92, 4.47, 4.47, 4.47, 4.47, 4.47, 4.92, 5.36, 5.36, 4.47, 4.02, 3.58, 3.58, 3.58, 4.02, 4.47, 5.36, 6.26, 6.71, 6.26, 5.81, 5.81, 6.26, 5.81, 0.0, 0.0, 0.0, 0.0, 6.71, 8.05, 8.05, 5.81, 3.13, 1.79, 0.0, 4.47, 5.36, 7.15, 8.94, 9.39, 9.39, 8.94, 8.05, 7.15, 7.15, 7.15, 8.05, 9.83, 10.28, 8.05, 7.15, 7.15, 7.6, 7.6, 1.34, 1.79, 1.79, 1.79, 1.79, 1.79, 1.79, 2.24, 2.24, 2.24, 2.68, 2.68, 2.68, 2.68, 2.68, 3.13, 3.13, 3.58, 4.02, 4.47, 4.47, 4.47, 4.47, 4.47, 4.47, 4.47, 4.47, 4.02, 4.02, 4.47, 4.92, 5.81, 6.26, 6.26, 6.71, 6.71, 6.71, 6.26, 6.26, 5.81, 5.36, 5.36, 4.92, 4.92, 4.92, 4.47, 4.47, 4.47, 4.47, 4.92, 4.92, 5.36, 5.36, 4.92, 4.47, 4.47, 4.47, 4.47, 4.47, 4.92, 5.81, 6.26, 6.26, 5.81, 5.81, 6.26, 6.26, 5.81, 4.02, 3.13, 4.02, 5.81, 7.15, 7.15, 6.71, 4.47, 2.24, 0.45, 0.45, 2.68, 5.36, 8.05, 9.39, 8.94, 8.49, 8.49, 7.6, 6.71, 6.26, 6.26, 6.71, 8.05, 9.83, 8.05, 6.26, 6.71, 7.6, 7.6, 1.34, 1.34, 1.79, 1.79, 1.79, 1.79, 1.79, 2.24, 2.24, 2.68, 2.68, 2.68, 2.68, 2.68, 3.13, 3.13, 3.58, 3.58, 4.02, 4.47, 4.47, 4.47, 4.02, 4.02, 4.02, 4.47, 4.47, 4.02, 4.02, 4.47, 5.36, 6.26, 6.26, 6.26, 6.26, 6.26, 6.26, 6.26, 5.81, 5.36, 5.36, 5.36, 4.92, 4.92, 4.47, 4.47, 4.47, 4.47, 4.47, 4.92, 5.36, 5.36, 5.36, 5.81, 5.81, 5.36, 5.81, 5.81, 5.81, 5.81, 6.26, 6.26, 5.81, 5.36, 5.81, 6.71, 6.71, 6.26, 5.81, 6.71, 8.05, 9.83, 9.39, 6.71, 4.47, 3.13, 2.68, 2.68, 2.68, 2.68, 5.81, 8.49, 9.39, 9.39, 8.49, 8.05, 7.6, 6.71, 5.81, 5.81, 6.26, 7.6, 8.94, 8.05, 6.71, 6.71, 7.6, 7.6, 1.34, 1.34, 1.34, 1.79, 1.79, 1.79, 1.79, 2.24, 2.24, 2.68, 2.68, 2.68, 2.68, 2.68, 3.13, 3.13, 3.58, 4.02, 4.02, 4.47, 4.47, 4.47, 4.47, 4.02, 4.02, 4.02, 4.02, 4.02, 4.02, 4.92, 5.36, 6.26, 6.71, 6.26, 5.81, 6.26, 6.26, 5.81, 5.81, 5.36, 5.36, 4.92, 4.92, 4.47, 4.47, 4.47, 4.47, 4.47, 4.47, 4.92, 4.92, 5.36, 5.81, 6.26, 6.26, 6.71, 6.71, 6.71, 6.26, 6.26, 6.26, 5.81, 5.36, 5.81, 6.26, 7.15, 7.15, 6.71, 7.15, 8.94, 11.18, 0.0, 11.62, 8.05, 2.24, 4.02, 4.92, 4.92, 4.02, 3.58, 4.47, 6.71, 8.49, 8.49, 8.49, 8.05, 7.15, 6.26, 5.36, 5.36, 5.81, 6.71, 7.6, 8.05, 7.15, 6.71, 7.6, 7.6, 1.34, 1.34, 1.34, 1.34, 1.79, 1.79, 1.79, 2.24, 2.24, 2.68, 2.68, 2.68, 2.68, 2.68, 3.13, 3.13, 4.02, 4.02, 4.47, 4.47, 4.47, 4.47, 4.47, 4.02, 4.02, 4.02, 4.02, 4.02, 4.02, 4.47, 5.36, 6.26, 6.71, 6.26, 6.26, 6.26, 6.26, 5.81, 5.81, 5.36, 5.36, 4.92, 4.47, 4.47, 4.47, 4.47, 4.47, 4.47, 4.47, 4.92, 4.92, 5.36, 5.81, 6.26, 6.71, 6.71, 6.71, 6.71, 7.6, 7.15, 6.26, 5.36, 5.81, 6.26, 7.15, 7.6, 7.15, 7.15, 7.15, 8.49, 8.05, 0.0, 4.47, 4.47, 3.58, 4.47, 5.36, 5.36, 4.92, 4.47, 3.58, 4.47, 5.36, 6.26, 7.15, 7.15, 6.26, 5.81, 5.36, 5.36, 5.36, 5.81, 7.15, 8.49, 7.6, 7.15, 7.6, 7.6, 0.89, 0.89, 1.34, 1.34, 1.79, 1.79, 1.79, 2.24, 2.24, 2.68, 2.68, 2.68, 2.68, 2.68, 2.68, 3.13, 4.02, 4.02, 4.47, 4.47, 4.02, 4.02, 4.02, 4.02, 4.02, 4.02, 4.02, 4.02, 4.02, 4.47, 5.36, 6.26, 6.26, 6.26, 6.26, 6.26, 6.26, 5.81, 5.81, 5.36, 4.92, 4.92, 4.47, 4.47, 4.02, 4.47, 4.02, 4.02, 4.47, 4.47, 4.92, 5.36, 5.81, 6.26, 6.26, 6.26, 6.26, 6.71, 7.6, 7.6, 6.26, 5.36, 5.81, 7.15, 7.6, 7.6, 7.15, 7.6, 7.6, 7.6, 5.81, 0.0, 0.0, 7.6, 6.26, 5.81, 5.36, 4.92, 4.92, 4.47, 4.02, 3.58, 4.02, 4.92, 6.26, 5.81, 5.36, 5.36, 5.36, 5.36, 4.92, 5.81, 7.15, 8.49, 8.05, 7.6, 8.05, 8.05, 0.89, 0.89, 1.34, 1.34, 1.34, 1.79, 1.79, 2.24, 2.24, 2.68, 2.68, 2.68, 2.68, 2.68, 3.13, 3.13, 4.02, 4.02, 4.47, 4.47, 4.02, 4.02, 4.02, 4.02, 4.02, 4.02, 3.58, 3.58, 4.02, 4.92, 5.36, 5.81, 6.26, 5.81, 6.26, 6.26, 6.26, 5.81, 5.81, 5.36, 4.92, 4.47, 4.47, 4.02, 4.02, 4.02, 4.02, 4.02, 4.02, 4.47, 4.92, 5.36, 5.81, 6.26, 6.26, 6.26, 6.71, 6.26, 6.71, 7.15, 6.71, 6.26, 6.26, 7.15, 7.6, 7.6, 7.6, 8.49, 8.49, 5.36, 0.89, 0.0, 0.0, 9.83, 9.83, 8.49, 6.26, 4.92, 4.92, 4.92, 4.02, 4.02, 4.47, 5.36, 6.26, 6.71, 6.26, 5.81, 5.36, 5.36, 5.81, 6.26, 7.6, 8.49, 8.94, 8.49, 8.05, 8.05, 0.89, 0.89, 0.89, 1.34, 1.34, 1.34, 1.79, 2.24, 2.24, 2.24, 2.68, 2.68, 2.68, 2.68, 3.13, 3.58, 3.58, 4.02, 4.02, 4.02, 4.02, 4.02, 4.02, 4.02, 4.02, 3.58, 3.58, 3.58, 4.02, 4.92, 5.36, 5.81, 5.81, 5.81, 5.81, 5.81, 5.81, 5.81, 5.36, 4.92, 4.47, 4.47, 4.02, 4.02, 3.58, 3.58, 4.02, 4.02, 4.02, 4.47, 4.92, 5.36, 5.81, 6.26, 6.26, 6.71, 6.71, 6.71, 5.81, 6.26, 6.71, 7.15, 7.15, 7.15, 7.15, 8.05, 8.49, 8.94, 7.6, 5.81, 3.13, 0.0, 0.0, 0.0, 12.07, 12.52, 8.94, 5.81, 5.36, 5.36, 5.36, 4.47, 4.47, 4.47, 5.36, 5.81, 5.81, 5.36, 5.36, 5.36, 6.26, 6.71, 8.05, 8.94, 8.94, 8.94, 8.49, 8.49, 0.89, 0.89, 0.89, 1.34, 1.34, 1.34, 1.79, 1.79, 2.24, 2.24, 2.24, 2.68, 2.68, 2.68, 3.13, 3.58, 3.58, 3.58, 3.58, 4.02, 4.02, 4.02, 4.02, 4.02, 3.58, 3.58, 3.13, 3.13, 3.58, 4.92, 5.36, 5.36, 5.36, 5.36, 5.36, 5.36, 5.36, 5.36, 4.92, 4.47, 4.02, 3.58, 3.58, 3.58, 3.58, 3.58, 3.58, 4.02, 4.02, 4.47, 4.92, 5.36, 5.81, 5.81, 6.26, 6.26, 6.71, 6.71, 5.81, 5.36, 6.26, 7.15, 7.15, 7.15, 7.6, 8.49, 8.94, 8.05, 7.15, 6.26, 4.92, 3.13, 0.0, 0.0, 0.0, 11.62, 12.96, 8.94, 6.26, 5.81, 5.81, 5.36, 4.92, 4.02, 4.02, 4.47, 5.36, 5.81, 5.81, 5.81, 6.26, 6.71, 8.49, 9.39, 8.94, 9.39, 8.94, 8.94, 0.89, 0.89, 0.89, 0.89, 1.34, 1.34, 1.34, 1.79, 1.79, 2.24, 2.24, 2.24, 2.68, 3.13, 3.58, 3.58, 3.58, 3.58, 3.58, 3.58, 4.02, 4.02, 4.02, 4.02, 3.58, 3.13, 2.68, 2.24, 2.68, 4.47, 5.36, 5.36, 5.36, 5.36, 5.36, 5.36, 4.92, 4.92, 4.47, 4.47, 4.02, 3.58, 3.58, 3.13, 3.13, 3.13, 3.58, 4.02, 4.47, 4.92, 5.36, 5.36, 5.81, 5.81, 6.26, 6.26, 6.71, 6.71, 5.81, 5.81, 5.81, 6.71, 6.71, 7.6, 8.49, 9.39, 8.94, 8.05, 6.71, 5.81, 4.92, 4.02, 2.68, 2.24, 0.0, 0.0, 0.0, 12.96, 8.94, 5.81, 5.36, 5.36, 4.92, 4.92, 4.92, 5.36, 5.81, 5.81, 5.81, 6.26, 6.26, 6.26, 8.05, 8.94, 9.39, 9.39, 9.39, 9.39, 0.89, 0.89, 0.89, 0.89, 1.34, 1.34, 1.34, 1.79, 1.79, 2.24, 2.24, 2.68, 2.68, 3.13, 3.58, 3.58, 3.58, 3.13, 3.13, 3.58, 4.02, 4.02, 4.02, 3.58, 3.58, 3.13, 2.24, 2.24, 2.68, 4.02, 5.36, 5.36, 5.36, 4.92, 5.36, 4.92, 4.92, 4.47, 4.47, 4.02, 4.02, 3.58, 3.58, 3.58, 3.58, 3.58, 3.58, 4.02, 4.47, 4.92, 5.36, 5.36, 5.81, 5.81, 6.26, 6.26, 6.26, 6.26, 6.26, 6.26, 6.26, 6.26, 7.15, 8.49, 9.39, 9.39, 9.39, 8.94, 7.15, 5.36, 3.13, 3.58, 4.47, 2.68, 0.0, 0.45, 4.02, 8.94, 12.07, 7.6, 4.92, 4.92, 5.36, 5.81, 6.26, 6.26, 5.81, 4.92, 4.92, 5.81, 5.81, 5.36, 5.81, 8.05, 8.94, 9.39, 8.94, 8.94, 0.45, 0.45, 0.89, 0.89, 1.34, 1.34, 1.34, 1.79, 1.79, 2.24, 2.24, 2.68, 3.13, 3.13, 3.58, 3.13, 3.13, 3.13, 3.13, 3.58, 3.58, 4.02, 3.58, 3.58, 3.13, 2.68, 2.68, 2.24, 2.68, 4.02, 4.92, 4.92, 4.92, 4.92, 4.92, 4.92, 4.47, 4.47, 4.02, 4.02, 3.58, 3.58, 3.58, 3.58, 3.58, 4.02, 4.02, 4.02, 4.47, 4.92, 4.92, 5.36, 5.36, 5.81, 5.81, 5.81, 6.26, 6.26, 6.26, 6.26, 6.71, 6.71, 7.6, 8.49, 8.49, 8.94, 8.94, 9.39, 8.49, 5.81, 3.58, 4.02, 6.71, 5.36, 3.13, 2.24, 4.02, 5.81, 8.05, 9.83, 7.15, 5.81, 6.26, 6.71, 7.15, 7.15, 6.26, 5.81, 5.36, 5.81, 5.36, 4.92, 4.47, 6.26, 7.6, 8.49, 8.49, 8.49, 0.45, 0.45, 0.89, 0.89, 0.89, 1.34, 1.34, 1.79, 1.79, 1.79, 2.24, 2.24, 3.13, 3.13, 3.13, 3.13, 3.13, 3.13, 3.13, 3.58, 3.58, 3.58, 3.13, 3.13, 3.13, 2.68, 2.68, 2.68, 3.58, 4.47, 4.92, 4.92, 4.92, 4.92, 4.92, 4.92, 4.47, 4.02, 4.02, 3.58, 3.58, 3.58, 3.58, 3.58, 3.58, 4.02, 4.47, 4.47, 4.92, 4.92, 4.92, 5.36, 5.36, 5.81, 5.81, 5.81, 6.26, 6.26, 6.26, 6.26, 6.71, 7.15, 8.05, 8.49, 8.49, 8.49, 8.05, 8.05, 7.15, 6.26, 5.81, 5.36, 0.0, 6.71, 5.81, 4.47, 4.92, 5.81, 5.81, 7.6, 9.39, 8.49, 7.6, 7.6, 7.6, 8.05, 7.6, 6.71, 6.26, 5.81, 4.92, 4.02, 4.02, 4.47, 6.26, 6.71, 7.15, 7.15, 0.45, 0.45, 0.45, 0.89, 0.89, 1.34, 1.34, 1.79, 1.79, 1.79, 2.24, 2.24, 2.68, 3.13, 3.13, 3.13, 3.13, 3.13, 3.13, 3.58, 3.13, 3.13, 3.13, 2.68, 2.68, 3.13, 3.13, 3.58, 4.02, 4.47, 4.92, 4.92, 4.92, 4.92, 4.92, 4.47, 4.02, 4.02, 3.58, 3.58, 3.58, 3.58, 3.58, 3.58, 3.58, 4.02, 4.47, 4.92, 4.92, 4.92, 5.36, 5.36, 5.36, 5.81, 5.81, 5.81, 6.26, 6.26, 6.26, 6.26, 6.71, 7.15, 8.05, 8.49, 8.49, 8.05, 7.15, 6.71, 6.71, 6.71, 6.71, 5.81, 3.58, 0.0, 4.02, 5.36, 5.36, 5.81, 5.81, 6.71, 8.94, 9.83, 8.94, 8.49, 8.05, 8.49, 8.49, 7.6, 6.71, 5.81, 5.36, 4.02, 3.13, 3.13, 4.92, 5.36, 5.81, 5.81, 0.45, 0.45, 0.45, 0.89, 0.89, 1.34, 1.34, 1.79, 1.79, 1.79, 2.24, 2.68, 2.68, 2.68, 3.13, 3.13, 3.13, 3.58, 3.58, 3.58, 3.13, 2.68, 2.68, 2.68, 2.68, 3.13, 3.58, 4.02, 4.02, 4.47, 4.92, 4.92, 4.47, 4.47, 4.47, 4.02, 4.02, 3.58, 3.58, 3.58, 3.58, 3.58, 3.58, 3.58, 3.58, 4.02, 4.47, 4.92, 4.92, 5.36, 5.36, 5.36, 5.36, 5.36, 5.81, 5.81, 6.26, 6.26, 6.26, 6.71, 6.71, 7.6, 8.05, 8.05, 8.05, 7.6, 7.15, 6.71, 6.26, 6.71, 7.15, 6.26, 3.13, 0.0, 2.68, 5.81, 5.81, 5.36, 5.81, 6.71, 8.49, 9.39, 9.39, 8.94, 8.49, 8.49, 8.49, 8.49, 7.6, 6.71, 5.81, 4.47, 3.58, 3.13, 3.13, 4.02, 4.47, 4.47, 0.45, 0.45, 0.45, 0.45, 0.89, 1.34, 1.34, 1.79, 1.79, 1.79, 2.24, 2.68, 2.68, 2.68, 3.13, 3.13, 3.58, 3.58, 3.58, 3.13, 2.68, 2.68, 2.24, 2.24, 2.68, 3.13, 3.58, 4.02, 4.02, 4.47, 4.92, 4.92, 4.47, 4.47, 4.02, 4.02, 3.58, 3.58, 3.58, 3.58, 3.58, 3.58, 3.58, 4.02, 4.02, 4.02, 4.47, 4.92, 4.92, 5.36, 5.36, 5.36, 5.36, 5.36, 5.36, 5.81, 6.26, 6.71, 6.71, 6.71, 7.15, 7.6, 8.05, 8.05, 7.6, 7.15, 6.71, 6.71, 6.26, 6.71, 6.71, 5.81, 3.58, 0.89, 2.68, 5.81, 6.26, 5.81, 5.81, 6.71, 8.05, 8.94, 8.94, 8.49, 8.49, 8.49, 8.94, 8.94, 8.05, 7.15, 6.26, 5.81, 4.92, 4.47, 4.02, 3.58, 4.47, 4.47, 0.0, 0.0, 0.45, 0.45, 0.89, 0.89, 1.34, 1.34, 1.79, 2.24, 2.24, 2.68, 2.68, 3.13, 3.58, 3.58, 3.58, 3.58, 3.13, 2.68, 2.68, 2.24, 2.24, 2.24, 2.68, 3.13, 3.58, 4.02, 4.02, 4.47, 4.47, 4.47, 4.47, 4.47, 4.02, 3.58, 3.58, 3.58, 3.58, 3.58, 3.58, 3.58, 4.02, 4.02, 4.02, 4.47, 4.47, 4.92, 4.92, 4.92, 5.36, 5.36, 5.36, 5.36, 5.81, 6.26, 6.71, 6.71, 6.71, 7.6, 7.6, 7.6, 7.6, 8.05, 7.6, 7.6, 7.15, 7.15, 6.71, 6.71, 6.26, 5.81, 4.47, 4.47, 4.92, 6.26, 7.15, 7.15, 6.71, 6.71, 7.6, 8.05, 8.05, 8.05, 8.49, 8.94, 8.94, 8.94, 8.49, 7.6, 7.15, 6.71, 6.26, 5.36, 5.36, 4.92, 4.92, 4.92, 0.0, 0.0, 0.0, 0.45, 0.45, 0.89, 0.89, 1.34, 1.79, 2.24, 2.24, 2.68, 2.68, 3.13, 3.58, 3.58, 3.58, 3.13, 2.68, 2.68, 2.68, 2.24, 2.24, 2.24, 2.68, 3.13, 3.58, 4.02, 4.47, 4.47, 4.47, 4.47, 4.47, 4.02, 3.58, 3.58, 3.13, 3.13, 3.13, 3.58, 3.58, 4.02, 4.02, 4.47, 4.47, 4.47, 4.92, 4.92, 4.92, 4.92, 4.92, 5.36, 5.36, 5.36, 5.81, 6.26, 6.71, 6.71, 7.15, 7.6, 8.05, 7.6, 7.6, 7.6, 7.6, 7.6, 7.6, 7.6, 7.15, 6.71, 6.26, 6.26, 6.71, 6.71, 6.26, 6.26, 7.6, 8.05, 8.05, 8.05, 8.05, 8.05, 8.05, 8.05, 8.49, 8.94, 8.94, 8.94, 8.94, 8.49, 8.05, 7.15, 6.71, 5.81, 5.36, 5.36, 4.92, 4.92, 0.0, 0.0, 0.0, 0.45, 0.45, 0.89, 0.89, 1.34, 1.79, 2.24, 2.24, 2.68, 3.13, 3.58, 3.58, 3.58, 3.13, 2.68, 2.68, 2.68, 2.68, 2.68, 2.68, 2.68, 2.68, 3.13, 3.58, 4.02, 4.47, 4.47, 4.47, 4.47, 4.47, 4.02, 4.02, 3.58, 3.13, 3.13, 3.13, 3.58, 4.02, 4.02, 4.47, 4.47, 4.47, 4.47, 4.92, 4.92, 4.92, 4.92, 4.92, 4.92, 5.36, 5.36, 5.81, 6.26, 6.71, 7.15, 7.6, 8.05, 8.05, 8.05, 8.05, 8.05, 7.6, 8.05, 8.05, 7.6, 7.15, 6.26, 5.81, 6.26, 7.15, 7.6, 7.15, 5.81, 5.36, 6.71, 8.49, 8.94, 8.94, 8.49, 8.49, 8.49, 8.49, 8.94, 9.39, 9.39, 8.94, 8.49, 8.05, 7.6, 6.71, 6.26, 5.81, 5.36, 4.92, 4.92, 0.0, 0.0, 0.0, 0.45, 0.45, 0.89, 1.34, 1.79, 1.79, 2.24, 2.24, 2.68, 3.13, 3.13, 3.58, 3.58, 3.13, 2.68, 2.68, 2.68, 3.13, 3.13, 3.13, 3.13, 3.13, 3.58, 3.58, 4.02, 4.47, 4.47, 4.47, 4.47, 4.47, 4.02, 4.02, 3.58, 3.58, 3.58, 3.58, 3.58, 4.02, 4.47, 4.47, 4.92, 4.92, 4.92, 4.47, 4.92, 4.92, 4.92, 4.92, 4.92, 5.36, 5.81, 5.81, 6.26, 6.71, 7.15, 7.6, 8.05, 8.05, 8.05, 8.05, 8.05, 8.05, 7.6, 7.6, 7.15, 6.71, 6.26, 5.81, 6.26, 6.26, 0.0, 8.05, 8.49, 6.26, 6.26, 8.49, 9.39, 9.39, 9.39, 8.94, 8.94, 8.94, 8.94, 9.39, 9.39, 8.94, 8.05, 7.6, 7.15, 6.71, 6.26, 5.81, 5.81, 5.36, 4.92, 0.0, 0.0, 0.0, 0.45, 0.45, 0.89, 1.34, 1.79, 1.79, 2.24, 2.24, 2.68, 3.13, 3.13, 3.13, 3.13, 3.13, 2.68, 2.68, 2.68, 3.13, 3.58, 3.58, 3.58, 3.58, 3.58, 3.58, 4.02, 4.47, 4.47, 4.47, 4.47, 4.47, 4.47, 4.02, 4.02, 4.02, 3.58, 3.58, 4.02, 4.02, 4.47, 4.47, 4.47, 4.92, 4.92, 4.92, 4.47, 4.92, 4.92, 4.92, 5.36, 5.36, 5.81, 6.26, 6.71, 7.15, 7.6, 8.05, 8.05, 8.05, 8.05, 8.05, 7.6, 7.6, 7.6, 7.6, 7.15, 6.71, 6.71, 6.26, 6.26, 5.81, 0.0, 6.71, 10.28, 8.94, 7.6, 8.05, 9.39, 9.83, 9.39, 8.94, 8.94, 8.49, 8.94, 8.94, 8.49, 8.05, 7.15, 7.15, 6.71, 6.71, 6.71, 6.26, 6.26, 5.81, 5.36, 0.0, 0.0, 0.0, 0.45, 0.89, 0.89, 1.34, 1.79, 1.79, 2.24, 2.24, 2.68, 2.68, 2.68, 3.13, 3.13, 3.13, 3.13, 3.13, 3.13, 3.58, 4.02, 4.02, 4.02, 4.02, 4.02, 3.58, 4.02, 4.47, 4.47, 4.47, 4.47, 4.47, 4.47, 4.47, 4.47, 4.02, 4.02, 4.02, 4.02, 4.02, 4.02, 4.02, 4.47, 4.47, 4.92, 4.92, 4.92, 4.92, 4.92, 4.92, 5.36, 5.36, 5.81, 6.26, 6.71, 7.15, 7.6, 8.05, 8.05, 8.05, 8.05, 8.05, 7.6, 7.6, 7.6, 7.15, 7.15, 6.71, 6.26, 6.26, 6.26, 5.81, 5.81, 0.0, 0.0, 8.05, 8.05, 8.49, 9.39, 9.83, 9.83, 8.94, 8.49, 8.49, 8.49, 8.05, 7.6, 6.71, 6.71, 6.71, 6.71, 6.71, 6.71, 6.71, 6.71, 6.26, 6.26, 0.0, 0.0, 0.0, 0.45, 0.89, 1.34, 1.34, 1.79, 1.79, 2.24, 2.24, 2.24, 2.68, 2.68, 2.68, 3.13, 3.13, 3.58, 3.58, 3.58, 4.02, 4.02, 4.02, 4.02, 4.02, 4.02, 4.02, 4.02, 4.02, 4.47, 4.47, 4.47, 4.47, 4.47, 4.47, 4.47, 4.47, 4.02, 4.02, 4.02, 4.02, 4.02, 4.02, 4.02, 4.47, 4.47, 4.92, 4.92, 4.92, 4.92, 5.36, 5.36, 5.81, 5.81, 6.26, 6.71, 7.6, 7.6, 8.05, 8.05, 8.05, 8.05, 7.6, 7.6, 7.6, 7.6, 7.15, 7.15, 6.71, 6.26, 6.26, 5.81, 5.81, 5.81, 5.36, 0.0, 0.0, 9.39, 9.83, 10.28, 10.28, 9.83, 8.94, 8.49, 8.05, 7.15, 6.71, 6.26, 6.26, 6.26, 6.26, 6.26, 6.26, 6.71, 6.71, 6.71, 6.71, 6.71, 0.0, 0.0, 0.0, 0.45, 0.89, 0.89, 1.34, 1.34, 1.79, 1.79, 2.24, 2.24, 2.24, 2.24, 2.24, 2.68, 3.13, 3.58, 4.02, 4.02, 4.02, 4.02, 4.02, 4.02, 4.02, 4.02, 4.02, 4.02, 4.02, 4.02, 4.02, 4.02, 4.02, 4.02, 4.47, 4.47, 4.02, 4.02, 4.02, 3.58, 3.58, 4.02, 4.02, 4.02, 4.47, 4.47, 4.47, 4.92, 4.92, 4.92, 5.36, 5.36, 5.81, 6.26, 6.71, 7.15, 7.6, 8.05, 8.05, 8.05, 8.05, 8.05, 7.6, 7.6, 7.6, 7.15, 7.15, 6.71, 6.26, 6.26, 6.26, 5.81, 5.81, 5.81, 6.71, 6.71, 7.6, 10.28, 11.62, 11.62, 11.62, 10.28, 8.49, 8.05, 6.71, 5.81, 5.81, 5.81, 6.26, 6.26, 6.26, 5.81, 6.26, 6.71, 6.71, 6.71, 6.71, 6.71, 0.0, 0.0, 0.0, 0.45, 0.89, 0.89, 1.34, 1.34, 1.79, 1.79, 1.79, 1.79, 1.79, 1.79, 2.24, 2.24, 3.13, 3.58, 4.02, 4.47, 4.47, 4.02, 4.02, 4.02, 4.02, 4.02, 4.02, 4.02, 4.02, 3.58, 3.58, 3.58, 3.58, 3.58, 4.02, 4.02, 4.02, 3.58, 3.58, 3.58, 4.02, 4.02, 4.02, 4.47, 4.47, 4.47, 4.47, 4.92, 4.92, 4.92, 5.36, 5.36, 5.81, 6.26, 6.71, 7.6, 8.05, 8.05, 8.05, 8.05, 8.05, 8.05, 7.6, 7.6, 7.15, 7.15, 7.15, 6.71, 6.71, 6.26, 5.81, 5.81, 5.81, 6.26, 6.71, 6.71, 7.15, 8.94, 10.73, 11.62, 12.96, 11.62, 8.49, 7.15, 5.36, 4.92, 5.81, 6.71, 6.26, 5.81, 5.36, 5.36, 5.81, 6.26, 6.26, 5.81, 5.81, 5.81, 0.0, 0.0, 0.0, 0.45, 0.45, 0.89, 1.34, 1.34, 1.79, 1.79, 1.79, 1.79, 1.79, 1.79, 2.24, 2.24, 3.13, 3.58, 4.02, 4.47, 4.47, 4.47, 4.02, 4.02, 4.02, 4.02, 4.02, 4.02, 4.02, 3.58, 3.58, 3.58, 3.13, 3.58, 3.58, 3.58, 3.58, 3.58, 3.58, 4.02, 4.02, 4.02, 4.47, 4.47, 4.47, 4.47, 4.47, 4.92, 4.92, 5.36, 5.36, 5.81, 6.26, 6.26, 6.71, 7.6, 8.05, 8.05, 8.05, 8.05, 7.6, 7.6, 7.6, 7.15, 7.15, 7.15, 6.71, 6.71, 6.26, 5.81, 5.81, 5.81, 6.26, 6.26, 6.71, 6.71, 7.15, 8.05, 9.83, 11.18, 12.52, 12.96, 9.83, 7.15, 4.02, 3.58, 5.81, 7.15, 6.26, 4.47, 4.47, 4.47, 4.47, 4.47, 4.47, 3.58, 3.58, 3.58, 0.0, 0.0, 0.0, 0.45, 0.45, 0.89, 0.89, 1.34, 1.34, 1.79, 1.79, 1.79, 2.24, 2.24, 2.24, 2.68, 3.13, 3.58, 4.02, 4.47, 4.47, 4.47, 4.47, 4.02, 4.02, 4.02, 4.02, 4.02, 4.02, 3.58, 3.58, 3.13, 3.13, 3.13, 3.13, 3.13, 3.58, 3.58, 3.58, 4.02, 4.02, 4.02, 4.47, 4.47, 4.47, 4.47, 4.47, 4.92, 4.92, 5.36, 5.81, 5.81, 6.26, 6.71, 7.6, 7.6, 8.05, 8.05, 8.05, 7.6, 7.6, 7.6, 7.6, 7.15, 7.15, 7.15, 6.71, 6.26, 5.81, 5.81, 5.81, 6.26, 6.71, 6.71, 6.71, 6.71, 7.15, 8.05, 9.83, 10.73, 11.18, 12.52, 12.52, 7.15, 2.68, 2.68, 5.81, 6.71, 5.36, 3.58, 3.58, 3.58, 3.13, 3.13, 2.68, 2.68, 2.68, 2.68, 0.0, 0.0, 0.0, 0.45, 0.45, 0.89, 0.89, 0.89, 1.34, 1.34, 1.79, 1.79, 2.24, 2.68, 2.68, 3.13, 3.58, 4.02, 4.02, 4.02, 4.02, 4.02, 4.02, 4.47, 4.47, 4.02, 4.02, 3.58, 3.58, 3.58, 3.13, 3.13, 3.13, 3.13, 3.13, 3.13, 3.58, 3.58, 4.02, 4.02, 4.02, 4.02, 4.47, 4.47, 4.47, 4.47, 4.92, 4.92, 5.36, 5.36, 5.81, 6.26, 6.71, 7.15, 7.6, 7.6, 7.6, 8.05, 7.6, 7.6, 7.6, 7.15, 7.15, 7.15, 7.15, 6.71, 6.71, 6.26, 6.26, 6.26, 6.71, 6.71, 7.15, 7.15, 7.15, 6.71, 7.15, 8.05, 9.39, 10.28, 10.28, 11.18, 14.3, 9.39, 1.79, 2.24, 4.92, 4.92, 4.02, 3.13, 2.68, 2.68, 2.68, 2.24, 2.68, 4.02, 4.02, 4.02, 0.0, 0.0, 0.0, 0.45, 0.45, 0.89, 0.89, 0.89, 0.89, 1.34, 1.34, 2.24, 2.68, 3.13, 3.13, 3.58, 4.02, 4.02, 4.02, 4.02, 4.02, 4.02, 4.02, 4.02, 4.02, 4.02, 3.58, 3.58, 3.13, 3.13, 3.13, 3.13, 3.13, 3.13, 3.13, 3.58, 3.58, 4.02, 4.02, 4.02, 4.02, 4.02, 4.02, 4.47, 4.47, 4.47, 4.92, 5.36, 5.36, 5.81, 5.81, 6.26, 6.71, 7.15, 7.6, 7.6, 7.6, 7.6, 7.6, 7.6, 7.15, 7.15, 7.15, 7.15, 7.15, 6.71, 6.71, 6.71, 6.71, 6.71, 6.26, 6.71, 6.71, 6.71, 6.71, 6.71, 7.6, 8.49, 9.39, 9.83, 8.94, 9.39, 11.18, 13.41, 4.02, 1.34, 4.02, 4.92, 5.36, 3.58, 2.24, 2.24, 2.24, 2.68, 4.02, 5.81, 5.81, 5.81, 0.0, 0.0, 0.0, 0.45, 0.89, 0.89, 0.89, 0.89, 0.89, 1.34, 1.34, 2.24, 2.68, 3.13, 3.58, 4.02, 4.02, 4.02, 4.02, 4.02, 4.02, 3.58, 3.58, 3.58, 3.58, 3.58, 3.58, 3.13, 3.13, 3.13, 3.13, 3.13, 3.13, 3.13, 3.13, 3.58, 3.58, 4.02, 4.02, 4.02, 4.02, 4.02, 4.47, 4.47, 4.47, 4.92, 4.92, 5.36, 5.81, 5.81, 6.26, 6.71, 7.15, 7.15, 7.15, 7.6, 7.6, 7.6, 7.6, 7.15, 7.15, 7.15, 6.71, 6.71, 6.71, 6.71, 6.71, 6.71, 6.71, 6.26, 6.26, 6.71, 6.71, 6.26, 6.26, 6.71, 7.6, 8.49, 8.94, 8.49, 7.6, 7.6, 6.71, 8.49, 7.15, 3.58, 4.92, 6.26, 6.26, 4.92, 3.13, 2.24, 2.68, 4.02, 5.36, 6.71, 6.71, 6.71, 0.0, 0.0, 0.0, 0.45, 0.89, 0.89, 1.34, 1.34, 1.34, 1.34, 1.79, 2.24, 2.68, 3.58, 4.02, 4.02, 4.02, 4.02, 4.02, 3.58, 3.58, 3.58, 3.13, 3.13, 3.13, 3.13, 3.13, 3.13, 3.13, 2.68, 2.68, 3.13, 3.13, 3.13, 3.13, 3.58, 3.58, 4.02, 4.02, 4.02, 4.02, 4.47, 4.47, 4.47, 4.92, 4.92, 5.36, 5.36, 5.81, 6.26, 6.26, 6.71, 7.15, 7.15, 7.15, 7.15, 7.6, 7.6, 7.15, 7.15, 7.15, 6.71, 6.71, 6.71, 6.71, 6.26, 6.71, 6.26, 6.26, 6.26, 6.71, 6.71, 6.71, 5.81, 6.26, 6.71, 7.6, 8.05, 8.05, 6.71, 6.26, 5.81, 0.0, 0.0, 3.58, 4.02, 6.26, 6.26, 4.92, 4.02, 3.58, 3.58, 4.47, 5.36, 6.71, 7.6, 7.6, 7.6, 0.0, 0.0, 0.0, 0.45, 0.89, 0.89, 0.89, 0.89, 1.34, 1.34, 1.79, 2.68, 3.13, 3.58, 4.02, 4.47, 4.02, 4.02, 3.58, 3.13, 3.13, 3.13, 3.13, 3.13, 3.13, 3.13, 3.13, 2.68, 2.68, 2.68, 2.68, 3.13, 3.13, 3.13, 3.13, 3.58, 3.58, 4.02, 4.02, 4.02, 4.47, 4.47, 4.47, 4.92, 4.92, 5.36, 5.36, 5.81, 5.81, 6.26, 6.26, 6.71, 6.71, 7.15, 7.15, 7.15, 7.15, 7.15, 7.15, 7.15, 6.71, 6.71, 6.71, 6.71, 6.26, 6.26, 6.26, 5.81, 5.81, 6.26, 6.71, 6.71, 6.26, 6.26, 5.81, 6.71, 7.6, 8.05, 7.15, 6.26, 5.36, 0.0, 0.0, 7.6, 4.02, 3.58, 5.36, 4.47, 3.13, 2.68, 3.58, 4.92, 5.81, 6.71, 7.6, 8.49, 8.49, 8.49, 0.0, 0.0, 0.45, 0.45, 0.89, 0.89, 0.89, 0.89, 1.34, 1.79, 2.24, 2.68, 3.13, 4.02, 4.02, 4.47, 4.02, 3.58, 3.13, 3.13, 2.68, 2.68, 2.68, 2.68, 2.68, 2.68, 2.68, 2.68, 2.68, 2.68, 2.68, 3.13, 3.13, 3.13, 3.13, 3.58, 3.58, 3.58, 4.02, 4.02, 4.47, 4.47, 4.47, 4.92, 4.92, 5.36, 5.36, 5.81, 5.81, 6.26, 6.26, 6.71, 6.71, 7.15, 7.15, 7.15, 7.15, 7.15, 6.71, 6.71, 6.71, 6.71, 6.71, 6.26, 6.26, 5.81, 5.81, 5.81, 5.81, 6.26, 6.26, 6.26, 6.26, 6.26, 6.26, 6.71, 7.6, 7.6, 6.71, 5.81, 5.36, 0.0, 0.0, 8.94, 3.58, 0.89, 2.24, 2.24, 1.79, 2.68, 4.47, 6.26, 7.15, 8.05, 8.49, 8.94, 8.94, 8.94, 0.0, 0.0, 0.45, 0.45, 0.45, 0.45, 0.45, 0.89, 1.34, 1.79, 2.24, 2.68, 3.13, 4.02, 4.02, 4.02, 4.02, 3.58, 3.13, 2.68, 2.68, 2.68, 2.68, 2.68, 2.68, 2.68, 2.68, 2.68, 2.68, 2.68, 2.68, 3.13, 3.13, 3.13, 3.13, 3.58, 3.58, 4.02, 4.02, 4.02, 4.47, 4.47, 4.47, 4.92, 4.92, 5.36, 5.81, 5.81, 5.81, 5.81, 6.26, 6.26, 6.71, 6.71, 6.71, 6.71, 6.71, 6.71, 6.71, 6.71, 6.71, 6.26, 6.26, 6.26, 6.26, 5.81, 5.81, 5.81, 5.81, 6.26, 6.26, 6.26, 6.26, 5.81, 6.26, 6.26, 6.71, 6.71, 6.26, 5.81, 5.36, 0.0, 0.0, 8.94, 5.36, -1.34, 0.0, 0.89, 2.24, 4.02, 6.26, 7.6, 8.05, 8.49, 8.94, 8.94, 8.94, 8.94, 0.0, 0.0, 0.45, 0.45, 0.45, 0.45, 0.89, 0.89, 1.34, 1.79, 2.24, 2.68, 3.13, 3.58, 3.58, 4.02, 4.02, 3.58, 3.13, 2.68, 2.24, 2.24, 2.68, 2.68, 2.68, 2.68, 2.68, 2.68, 2.68, 2.68, 2.68, 3.13, 3.13, 3.13, 3.13, 3.58, 3.58, 4.02, 4.02, 4.47, 4.47, 4.47, 4.47, 4.92, 5.36, 5.36, 5.36, 5.81, 5.81, 5.81, 5.81, 6.26, 6.26, 6.71, 6.71, 6.71, 6.71, 6.71, 6.71, 6.26, 6.26, 6.26, 6.26, 6.26, 5.81, 5.81, 5.81, 5.81, 5.81, 5.81, 6.26, 6.26, 5.81, 5.81, 5.81, 6.26, 5.81, 6.26, 5.81, 5.81, 5.36, 0.0, 0.0, 0.0, 8.49, -1.34, -0.89, 1.79, 4.02, 6.26, 7.6, 8.49, 8.94, 9.39, 9.39, 8.94, 8.94, 8.94, 0.0, 0.0, 0.45, 0.45, 0.45, 0.45, 0.89, 1.34, 1.34, 1.79, 2.24, 2.68, 3.13, 3.13, 3.58, 3.58, 3.58, 3.58, 3.58, 3.13, 2.68, 2.68, 2.68, 2.68, 2.68, 2.68, 2.68, 2.68, 2.68, 2.68, 2.68, 3.13, 3.13, 3.13, 3.58, 3.58, 4.02, 4.02, 4.02, 4.02, 4.47, 4.47, 4.47, 4.92, 4.92, 5.36, 5.36, 5.36, 5.36, 5.81, 5.81, 6.26, 6.26, 6.26, 6.26, 6.26, 6.26, 6.26, 6.26, 6.26, 6.26, 6.26, 5.81, 5.81, 5.81, 5.81, 5.81, 5.81, 5.81, 5.81, 6.26, 6.26, 5.81, 5.81, 5.81, 5.81, 5.81, 5.36, 5.36, 5.36, 0.0, 0.0, 0.0, 0.0, 5.81, 3.58, 1.34, 4.47, 6.71, 8.05, 8.49, 8.94, 9.39, 9.83, 9.83, 8.94, 8.94, 8.94, 0.0, 0.0, 0.45, 0.45, 0.45, 0.89, 0.89, 1.34, 1.79, 2.24, 2.24, 2.68, 3.13, 3.13, 3.58, 3.58, 3.58, 3.58, 3.58, 3.13, 2.68, 2.68, 2.68, 2.68, 2.68, 2.68, 2.68, 2.68, 2.68, 2.68, 2.68, 3.13, 3.13, 3.13, 3.58, 3.58, 4.02, 4.02, 4.02, 4.02, 4.47, 4.47, 4.47, 4.92, 4.92, 4.92, 5.36, 5.36, 5.36, 5.36, 5.81, 5.81, 6.26, 6.26, 6.26, 6.26, 6.26, 6.26, 6.26, 6.26, 6.26, 5.81, 5.81, 5.81, 5.81, 5.81, 5.81, 5.81, 5.81, 5.81, 5.81, 5.81, 5.81, 5.81, 5.81, 5.81, 5.81, 5.36, 5.36, 4.92, 3.58, 0.0, 0.0, 0.0, 3.13, 8.05, 7.15, 7.6, 8.49, 8.94, 8.94, 8.94, 9.39, 9.83, 9.39, 8.05, 8.05, 8.05, 0.0, 0.0, 0.45, 0.45, 0.45, 0.89, 0.89, 1.34, 1.79, 2.24, 2.68, 3.13, 3.13, 3.13, 3.13, 3.13, 3.58, 3.58, 3.58, 3.58, 3.13, 2.68, 2.68, 2.68, 2.68, 2.68, 2.68, 2.68, 2.68, 2.68, 3.13, 3.13, 3.13, 3.58, 3.58, 3.58, 3.58, 4.02, 4.02, 4.02, 4.02, 4.47, 4.47, 4.92, 4.92, 4.92, 4.92, 4.92, 4.92, 5.36, 5.36, 5.81, 5.81, 5.81, 6.26, 6.26, 6.26, 6.26, 6.26, 5.81, 5.81, 5.81, 5.81, 5.81, 5.81, 5.81, 5.81, 5.81, 5.81, 5.81, 5.81, 5.81, 5.36, 5.36, 5.81, 5.81, 5.81, 5.81, 5.36, 4.92, 3.58, 0.0, 0.0, 0.0, 3.58, 8.49, 10.28, 9.83, 9.39, 9.39, 9.39, 9.39, 9.83, 9.83, 8.94, 7.6, 7.6, 7.6, 0.0, 0.0, 0.45, 0.45, 0.89, 0.89, 1.34, 1.34, 1.79, 2.68, 3.13, 3.13, 3.13, 3.13, 3.13, 3.13, 3.13, 3.58, 3.58, 3.58, 3.13, 3.13, 2.68, 2.68, 2.68, 2.68, 2.68, 2.68, 2.68, 3.13, 3.13, 3.13, 3.13, 3.58, 3.58, 3.58, 3.58, 3.58, 3.58, 4.02, 4.02, 4.47, 4.47, 4.47, 4.47, 4.47, 4.92, 4.92, 4.92, 5.36, 5.36, 5.81, 5.81, 5.81, 6.26, 6.26, 6.26, 5.81, 5.81, 5.81, 5.81, 5.81, 5.81, 5.81, 5.81, 5.81, 5.81, 5.36, 5.36, 5.81, 5.81, 5.81, 5.81, 5.81, 5.81, 5.81, 5.81, 5.36, 5.36, 4.92, 3.58, 2.24, 0.0, 0.0, 4.92, 8.94, 11.62, 11.18, 10.28, 9.83, 9.83, 9.83, 9.83, 9.39, 8.49, 7.15, 7.15, 7.15, 0.0, 0.0, 0.45, 0.45, 0.89, 1.34, 1.34, 1.79, 2.24, 2.68, 3.13, 3.13, 3.13, 3.13, 2.68, 3.13, 3.13, 3.13, 3.58, 3.58, 3.13, 3.13, 3.13, 3.13, 2.68, 2.68, 2.68, 2.68, 2.68, 3.13, 3.13, 3.13, 3.13, 3.13, 3.58, 3.58, 3.58, 3.58, 3.58, 3.58, 4.02, 4.02, 4.02, 4.47, 4.47, 4.47, 4.47, 4.47, 4.92, 4.92, 5.36, 5.36, 5.81, 5.81, 5.81, 5.81, 5.81, 5.81, 5.81, 5.81, 5.81, 5.81, 5.81, 5.81, 5.81, 5.36, 5.36, 5.36, 5.36, 5.36, 5.81, 5.81, 5.81, 5.81, 5.36, 5.36, 5.36, 5.36, 5.36, 4.92, 4.47, 3.58, 0.0, 0.0, 5.36, 8.94, 12.07, 12.52, 11.62, 10.73, 10.28, 10.28, 9.83, 8.94, 7.6, 6.71, 6.71, 6.71, 0.0, 0.0, 0.45, 0.45, 0.89, 1.34, 1.34, 1.79, 2.24, 2.68, 3.13, 3.13, 3.13, 3.13, 2.68, 3.13, 3.13, 3.13, 3.58, 3.58, 3.13, 3.13, 3.13, 3.13, 2.68, 2.68, 2.68, 2.68, 2.68, 3.13, 3.13, 3.13, 3.13, 3.13, 3.58, 3.58, 3.58, 3.58, 3.58, 3.58, 4.02, 4.02, 4.02, 4.47, 4.47, 4.47, 4.47, 4.47, 4.92, 4.92, 5.36, 5.36, 5.81, 5.81, 5.81, 5.81, 5.81, 5.81, 5.81, 5.81, 5.81, 5.81, 5.81, 5.81, 5.81, 5.36, 5.36, 5.36, 5.36, 5.36, 5.81, 5.81, 5.81, 5.81, 5.36, 5.36, 5.36, 5.36, 5.36, 4.92, 4.47, 4.02, 3.58, 4.02, 5.36, 8.49, 11.18, 12.52, 12.52, 12.07, 11.18, 10.73, 9.39, 8.49, 7.15, 6.26, 6.26, 6.26]}]